Wetterdaten: Montag, 21.10.2013
Datum Zeit Temp. Aussen +5cm Feuchte Auss Luftdruck Regen Sonnenschein Regendauer UV Solar Windben
21.10.2013 00:00 14,9 C 13,3 C 86 % 1011,9 hPa 0,0 l/m 0 min 0 min 0,0 UV-I 0 W/m 10,3 km/h (2 Bft)
21.10.2013 00:02 14,9 C 13,3 C 86 % 1012,0 hPa 0,0 l/m 0 min 0 min 0,0 UV-I 0 W/m 12,9 km/h (3 Bft)
21.10.2013 00:06 14,9 C 13,3 C 86 % 1012,0 hPa 0,0 l/m 0 min 0 min 0,0 UV-I 0 W/m 7,7 km/h (2 Bft)
21.10.2013 00:08 14,9 C 13,3 C 86 % 1012,1 hPa 0,0 l/m 0 min 0 min 0,0 UV-I 0 W/m 0,0 km/h (0 Bft)
21.10.2013 00:10 14,9 C 13,3 C 86 % 1012,1 hPa 0,0 l/m 0 min 0 min 0,0 UV-I 0 W/m 18,0 km/h (3 Bft)
21.10.2013 00:12 14,9 C 13,3 C 86 % 1012,2 hPa 0,0 l/m 0 min 0 min 0,0 UV-I 0 W/m 18,0 km/h (3 Bft)
21.10.2013 00:14 14,9 C 13,3 C 86 % 1012,0 hPa 0,0 l/m 0 min 0 min 0,0 UV-I 0 W/m 15,4 km/h (3 Bft)
21.10.2013 00:16 14,9 C 13,3 C 86 % 1012,1 hPa 0,0 l/m 0 min 0 min 0,0 UV-I 0 W/m 23,2 km/h (4 Bft)
21.10.2013 00:18 14,9 C 13,3 C 86 % 1012,1 hPa 0,0 l/m 0 min 0 min 0,0 UV-I 0 W/m 7,7 km/h (2 Bft)
21.10.2013 00:20 14,9 C 13,3 C 86 % 1012,0 hPa 0,0 l/m 0 min 0 min 0,0 UV-I 0 W/m 7,7 km/h (2 Bft)
21.10.2013 00:22 14,9 C 12,8 C 86 % 1012,1 hPa 0,0 l/m 0 min 0 min 0,0 UV-I 0 W/m 10,3 km/h (2 Bft)
21.10.2013 00:24 14,8 C 12,8 C 86 % 1012,1 hPa 0,0 l/m 0 min 0 min 0,0 UV-I 0 W/m 18,0 km/h (3 Bft)
21.10.2013 00:26 14,8 C 12,8 C 86 % 1012,2 hPa 0,0 l/m 0 min 0 min 0,0 UV-I 0 W/m 7,7 km/h (2 Bft)
21.10.2013 00:28 14,8 C 12,8 C 86 % 1012,2 hPa 0,0 l/m 0 min 0 min 0,0 UV-I 0 W/m 12,9 km/h (3 Bft)
21.10.2013 00:30 14,8 C 12,8 C 86 % 1012,3 hPa 0,0 l/m 0 min 0 min 0,0 UV-I 0 W/m 5,1 km/h (1 Bft)
21.10.2013 00:32 14,8 C 12,8 C 86 % 1012,3 hPa 0,0 l/m 0 min 0 min 0,0 UV-I 0 W/m 20,6 km/h (4 Bft)
21.10.2013 00:34 14,8 C 12,8 C 86 % 1012,4 hPa 0,0 l/m 0 min 0 min 0,0 UV-I 0 W/m 10,3 km/h (2 Bft)
21.10.2013 00:36 14,7 C 12,8 C 86 % 1012,4 hPa 0,0 l/m 0 min 0 min 0,0 UV-I 0 W/m 18,0 km/h (3 Bft)
21.10.2013 00:38 14,7 C 12,8 C 86 % 1012,4 hPa 0,0 l/m 0 min 0 min 0,0 UV-I 0 W/m 15,4 km/h (3 Bft)
21.10.2013 00:40 14,7 C 12,8 C 86 % 1012,4 hPa 0,0 l/m 0 min 0 min 0,0 UV-I 0 W/m 12,9 km/h (3 Bft)
21.10.2013 00:42 14,7 C 12,8 C 86 % 1012,4 hPa 0,0 l/m 0 min 0 min 0,0 UV-I 0 W/m 20,6 km/h (4 Bft)
21.10.2013 00:44 14,7 C 12,8 C 86 % 1012,4 hPa 0,0 l/m 0 min 0 min 0,0 UV-I 0 W/m 7,7 km/h (2 Bft)
21.10.2013 00:46 14,7 C 12,8 C 86 % 1012,5 hPa 0,0 l/m 0 min 0 min 0,0 UV-I 0 W/m 12,9 km/h (3 Bft)
21.10.2013 00:48 14,7 C 12,8 C 86 % 1012,4 hPa 0,0 l/m 0 min 0 min 0,0 UV-I 0 W/m 12,9 km/h (3 Bft)
21.10.2013 00:50 14,7 C 12,8 C 86 % 1012,4 hPa 0,0 l/m 0 min 0 min 0,0 UV-I 0 W/m 2,6 km/h (1 Bft)
21.10.2013 00:52 14,6 C 12,8 C 86 % 1012,3 hPa 0,0 l/m 0 min 0 min 0,0 UV-I 0 W/m 10,3 km/h (2 Bft)
21.10.2013 00:54 14,6 C 12,8 C 86 % 1012,3 hPa 0,0 l/m 0 min 0 min 0,0 UV-I 0 W/m 10,3 km/h (2 Bft)
21.10.2013 00:56 14,6 C 12,8 C 86 % 1012,3 hPa 0,0 l/m 0 min 0 min 0,0 UV-I 0 W/m 5,1 km/h (1 Bft)
21.10.2013 00:58 14,5 C 12,8 C 86 % 1012,5 hPa 0,0 l/m 0 min 0 min 0,0 UV-I 0 W/m 5,1 km/h (1 Bft)
21.10.2013 01:00 14,4 C 12,8 C 86 % 1012,4 hPa 0,0 l/m 0 min 0 min 0,0 UV-I 0 W/m 10,3 km/h (2 Bft)
21.10.2013 01:02 14,4 C 12,8 C 86 % 1012,5 hPa 0,0 l/m 0 min 0 min 0,0 UV-I 0 W/m 23,2 km/h (4 Bft)
21.10.2013 01:06 14,3 C 12,8 C 87 % 1012,5 hPa 0,0 l/m 0 min 0 min 0,0 UV-I 0 W/m 15,4 km/h (3 Bft)
21.10.2013 01:08 14,2 C 12,2 C 87 % 1012,6 hPa 0,0 l/m 0 min 0 min 0,0 UV-I 0 W/m 7,7 km/h (2 Bft)
21.10.2013 01:10 14,2 C 12,2 C 87 % 1012,5 hPa 0,0 l/m 0 min 0 min 0,0 UV-I 0 W/m 2,6 km/h (1 Bft)
21.10.2013 01:12 14,2 C 12,2 C 87 % 1012,6 hPa 0,0 l/m 0 min 0 min 0,0 UV-I 0 W/m 2,6 km/h (1 Bft)
21.10.2013 01:14 14,2 C 12,2 C 87 % 1012,6 hPa 0,0 l/m 0 min 0 min 0,0 UV-I 0 W/m 5,1 km/h (1 Bft)
21.10.2013 01:16 14,2 C 12,2 C 87 % 1012,5 hPa 0,0 l/m 0 min 0 min 0,0 UV-I 0 W/m 7,7 km/h (2 Bft)
21.10.2013 01:18 14,1 C 12,2 C 87 % 1012,5 hPa 0,0 l/m 0 min 0 min 0,0 UV-I 0 W/m 12,9 km/h (3 Bft)
21.10.2013 01:20 14,1 C 12,2 C 88 % 1012,5 hPa 0,0 l/m 0 min 0 min 0,0 UV-I 0 W/m 7,7 km/h (2 Bft)
21.10.2013 01:22 14,1 C 12,2 C 88 % 1012,6 hPa 0,0 l/m 0 min 0 min 0,0 UV-I 0 W/m 12,9 km/h (3 Bft)
21.10.2013 01:24 14,1 C 12,2 C 88 % 1012,6 hPa 0,0 l/m 0 min 0 min 0,0 UV-I 0 W/m 7,7 km/h (2 Bft)
21.10.2013 01:26 14,1 C 12,2 C 88 % 1012,6 hPa 0,0 l/m 0 min 0 min 0,0 UV-I 0 W/m 5,1 km/h (1 Bft)
21.10.2013 01:28 14,0 C 12,2 C 88 % 1012,6 hPa 0,0 l/m 0 min 0 min 0,0 UV-I 0 W/m 5,1 km/h (1 Bft)
21.10.2013 01:30 14,0 C 12,2 C 88 % 1012,6 hPa 0,0 l/m 0 min 0 min 0,0 UV-I 0 W/m 12,9 km/h (3 Bft)
21.10.2013 01:32 13,9 C 12,2 C 88 % 1012,6 hPa 0,0 l/m 0 min 0 min 0,0 UV-I 0 W/m 15,4 km/h (3 Bft)
21.10.2013 01:34 13,9 C 12,2 C 88 % 1012,6 hPa 0,0 l/m 0 min 0 min 0,0 UV-I 0 W/m 0,0 km/h (0 Bft)
21.10.2013 01:36 13,9 C 12,2 C 88 % 1012,6 hPa 0,0 l/m 0 min 0 min 0,0 UV-I 0 W/m 12,9 km/h (3 Bft)
21.10.2013 01:38 13,8 C 12,2 C 88 % 1012,7 hPa 0,0 l/m 0 min 0 min 0,0 UV-I 0 W/m 12,9 km/h (3 Bft)
21.10.2013 01:40 13,8 C 12,2 C 88 % 1012,6 hPa 0,0 l/m 0 min 0 min 0,0 UV-I 0 W/m 2,6 km/h (1 Bft)
21.10.2013 01:42 13,8 C 12,2 C 88 % 1012,7 hPa 0,0 l/m 0 min 0 min 0,0 UV-I 0 W/m 15,4 km/h (3 Bft)
21.10.2013 01:44 13,8 C 12,2 C 88 % 1012,7 hPa 0,0 l/m 0 min 0 min 0,0 UV-I 0 W/m 0,0 km/h (0 Bft)
21.10.2013 01:46 13,7 C 11,7 C 88 % 1012,8 hPa 0,0 l/m 0 min 0 min 0,0 UV-I 0 W/m 5,1 km/h (1 Bft)
21.10.2013 01:48 13,7 C 11,7 C 89 % 1012,7 hPa 0,0 l/m 0 min 0 min 0,0 UV-I 0 W/m 0,0 km/h (0 Bft)
21.10.2013 01:50 13,6 C 11,7 C 89 % 1012,8 hPa 0,0 l/m 0 min 0 min 0,0 UV-I 0 W/m 5,1 km/h (1 Bft)
21.10.2013 01:52 13,6 C 11,7 C 89 % 1012,8 hPa 0,0 l/m 0 min 0 min 0,0 UV-I 0 W/m 7,7 km/h (2 Bft)
21.10.2013 01:54 13,6 C 11,7 C 89 % 1012,8 hPa 0,0 l/m 0 min 0 min 0,0 UV-I 0 W/m 10,3 km/h (2 Bft)
21.10.2013 01:56 13,5 C 11,7 C 89 % 1012,8 hPa 0,0 l/m 0 min 0 min 0,0 UV-I 0 W/m 5,1 km/h (1 Bft)
21.10.2013 01:58 13,5 C 11,7 C 89 % 1012,8 hPa 0,0 l/m 0 min 0 min 0,0 UV-I 0 W/m 10,3 km/h (2 Bft)
21.10.2013 02:00 13,4 C 11,7 C 89 % 1012,8 hPa 0,0 l/m 0 min 0 min 0,0 UV-I 0 W/m 7,7 km/h (2 Bft)
21.10.2013 02:02 13,4 C 11,7 C 90 % 1012,8 hPa 0,0 l/m 0 min 0 min 0,0 UV-I 0 W/m 10,3 km/h (2 Bft)
21.10.2013 02:06 13,4 C 11,7 C 90 % 1012,9 hPa 0,0 l/m 0 min 0 min 0,0 UV-I 0 W/m 10,3 km/h (2 Bft)
21.10.2013 02:08 13,4 C 11,7 C 90 % 1013,0 hPa 0,0 l/m 0 min 0 min 0,0 UV-I 0 W/m 2,6 km/h (1 Bft)
21.10.2013 02:10 13,3 C 11,7 C 90 % 1013,0 hPa 0,0 l/m 0 min 0 min 0,0 UV-I 0 W/m 0,0 km/h (0 Bft)
21.10.2013 02:12 13,3 C 11,7 C 90 % 1013,0 hPa 0,0 l/m 0 min 0 min 0,0 UV-I 0 W/m 0,0 km/h (0 Bft)
21.10.2013 02:14 13,2 C 11,7 C 90 % 1012,9 hPa 0,0 l/m 0 min 0 min 0,0 UV-I 0 W/m 7,7 km/h (2 Bft)
21.10.2013 02:16 13,2 C 11,7 C 90 % 1012,9 hPa 0,0 l/m 0 min 0 min 0,0 UV-I 0 W/m 2,6 km/h (1 Bft)
21.10.2013 02:18 13,2 C 11,7 C 90 % 1012,9 hPa 0,0 l/m 0 min 0 min 0,0 UV-I 0 W/m 7,7 km/h (2 Bft)
21.10.2013 02:20 13,2 C 11,7 C 90 % 1012,9 hPa 0,0 l/m 0 min 0 min 0,0 UV-I 0 W/m 12,9 km/h (3 Bft)
21.10.2013 02:22 13,2 C 11,7 C 91 % 1012,9 hPa 0,0 l/m 0 min 0 min 0,0 UV-I 0 W/m 5,1 km/h (1 Bft)
21.10.2013 02:24 13,2 C 11,7 C 91 % 1012,8 hPa 0,0 l/m 0 min 0 min 0,0 UV-I 0 W/m 0,0 km/h (0 Bft)
21.10.2013 02:26 13,2 C 11,7 C 91 % 1012,9 hPa 0,0 l/m 0 min 0 min 0,0 UV-I 0 W/m 2,6 km/h (1 Bft)
21.10.2013 02:28 13,2 C 11,7 C 91 % 1012,9 hPa 0,0 l/m 0 min 0 min 0,0 UV-I 0 W/m 0,0 km/h (0 Bft)
21.10.2013 02:30 13,2 C 11,7 C 91 % 1012,9 hPa 0,0 l/m 0 min 0 min 0,0 UV-I 0 W/m 12,9 km/h (3 Bft)
21.10.2013 02:32 13,2 C 11,7 C 91 % 1012,9 hPa 0,0 l/m 0 min 0 min 0,0 UV-I 0 W/m 7,7 km/h (2 Bft)
21.10.2013 02:34 13,1 C 11,7 C 91 % 1012,8 hPa 0,0 l/m 0 min 0 min 0,0 UV-I 0 W/m 0,0 km/h (0 Bft)
21.10.2013 02:36 13,1 C 11,7 C 91 % 1012,9 hPa 0,0 l/m 0 min 0 min 0,0 UV-I 0 W/m 5,1 km/h (1 Bft)
21.10.2013 02:38 13,1 C 11,7 C 91 % 1012,9 hPa 0,0 l/m 0 min 0 min 0,0 UV-I 0 W/m 12,9 km/h (3 Bft)
21.10.2013 02:40 13,1 C 11,7 C 91 % 1012,9 hPa 0,0 l/m 0 min 0 min 0,0 UV-I 0 W/m 5,1 km/h (1 Bft)
21.10.2013 02:42 13,1 C 11,7 C 91 % 1012,8 hPa 0,0 l/m 0 min 0 min 0,0 UV-I 0 W/m 10,3 km/h (2 Bft)
21.10.2013 02:44 13,1 C 11,7 C 91 % 1012,9 hPa 0,0 l/m 0 min 0 min 0,0 UV-I 0 W/m 15,4 km/h (3 Bft)
21.10.2013 02:46 13,1 C 11,7 C 91 % 1012,8 hPa 0,0 l/m 0 min 0 min 0,0 UV-I 0 W/m 7,7 km/h (2 Bft)
21.10.2013 02:48 13,1 C 11,7 C 91 % 1012,8 hPa 0,0 l/m 0 min 0 min 0,0 UV-I 0 W/m 10,3 km/h (2 Bft)
21.10.2013 02:50 13,1 C 11,7 C 91 % 1012,8 hPa 0,0 l/m 0 min 0 min 0,0 UV-I 0 W/m 18,0 km/h (3 Bft)
21.10.2013 02:52 13,1 C 11,7 C 91 % 1012,8 hPa 0,0 l/m 0 min 0 min 0,0 UV-I 0 W/m 7,7 km/h (2 Bft)
21.10.2013 02:54 13,1 C 11,7 C 91 % 1012,8 hPa 0,0 l/m 0 min 0 min 0,0 UV-I 0 W/m 2,6 km/h (1 Bft)
21.10.2013 02:56 13,1 C 11,1 C 91 % 1012,9 hPa 0,0 l/m 0 min 0 min 0,0 UV-I 0 W/m 2,6 km/h (1 Bft)
21.10.2013 02:58 13,1 C 11,7 C 91 % 1012,8 hPa 0,0 l/m 0 min 0 min 0,0 UV-I 0 W/m 15,4 km/h (3 Bft)
21.10.2013 03:00 13,1 C 11,7 C 91 % 1012,8 hPa 0,0 l/m 0 min 0 min 0,0 UV-I 0 W/m 2,6 km/h (1 Bft)
21.10.2013 03:02 13,1 C 11,1 C 91 % 1012,8 hPa 0,0 l/m 0 min 0 min 0,0 UV-I 0 W/m 10,3 km/h (2 Bft)
21.10.2013 03:06 13,0 C 11,1 C 91 % 1012,8 hPa 0,0 l/m 0 min 0 min 0,0 UV-I 0 W/m 15,4 km/h (3 Bft)
21.10.2013 03:08 13,0 C 11,1 C 91 % 1012,9 hPa 0,0 l/m 0 min 0 min 0,0 UV-I 0 W/m 12,9 km/h (3 Bft)
21.10.2013 03:10 13,0 C 11,1 C 91 % 1012,8 hPa 0,0 l/m 0 min 0 min 0,0 UV-I 0 W/m 0,0 km/h (0 Bft)
21.10.2013 03:12 12,9 C 11,1 C 91 % 1012,9 hPa 0,0 l/m 0 min 0 min 0,0 UV-I 0 W/m 0,0 km/h (0 Bft)
21.10.2013 03:14 12,9 C 11,1 C 91 % 1012,9 hPa 0,0 l/m 0 min 0 min 0,0 UV-I 0 W/m 0,0 km/h (0 Bft)
21.10.2013 03:16 12,9 C 11,1 C 91 % 1012,9 hPa 0,0 l/m 0 min 0 min 0,0 UV-I 0 W/m 0,0 km/h (0 Bft)
21.10.2013 03:18 12,9 C 11,1 C 91 % 1012,9 hPa 0,0 l/m 0 min 0 min 0,0 UV-I 0 W/m 7,7 km/h (2 Bft)
21.10.2013 03:20 12,9 C 11,1 C 91 % 1012,9 hPa 0,0 l/m 0 min 0 min 0,0 UV-I 0 W/m 0,0 km/h (0 Bft)
21.10.2013 03:22 12,8 C 11,1 C 92 % 1012,9 hPa 0,0 l/m 0 min 0 min 0,0 UV-I 0 W/m 10,3 km/h (2 Bft)
21.10.2013 03:24 12,8 C 11,1 C 92 % 1012,9 hPa 0,0 l/m 0 min 0 min 0,0 UV-I 0 W/m 0,0 km/h (0 Bft)
21.10.2013 03:26 12,8 C 11,1 C 92 % 1012,9 hPa 0,0 l/m 0 min 0 min 0,0 UV-I 0 W/m 0,0 km/h (0 Bft)
21.10.2013 03:28 12,8 C 11,1 C 92 % 1012,9 hPa 0,0 l/m 0 min 0 min 0,0 UV-I 0 W/m 0,0 km/h (0 Bft)
21.10.2013 03:30 12,7 C 11,1 C 92 % 1012,9 hPa 0,0 l/m 0 min 0 min 0,0 UV-I 0 W/m 0,0 km/h (0 Bft)
21.10.2013 03:32 12,7 C 11,1 C 92 % 1013,0 hPa 0,0 l/m 0 min 0 min 0,0 UV-I 0 W/m 10,3 km/h (2 Bft)
21.10.2013 03:34 12,7 C 11,1 C 92 % 1012,9 hPa 0,0 l/m 0 min 0 min 0,0 UV-I 0 W/m 0,0 km/h (0 Bft)
21.10.2013 03:36 12,7 C 11,1 C 92 % 1012,9 hPa 0,0 l/m 0 min 0 min 0,0 UV-I 0 W/m 0,0 km/h (0 Bft)
21.10.2013 03:38 12,7 C 11,1 C 92 % 1012,8 hPa 0,0 l/m 0 min 0 min 0,0 UV-I 0 W/m 0,0 km/h (0 Bft)
21.10.2013 03:40 12,7 C 11,1 C 92 % 1012,9 hPa 0,0 l/m 0 min 0 min 0,0 UV-I 0 W/m 10,3 km/h (2 Bft)
21.10.2013 03:42 12,7 C 11,1 C 92 % 1012,8 hPa 0,0 l/m 0 min 0 min 0,0 UV-I 0 W/m 10,3 km/h (2 Bft)
21.10.2013 03:44 12,7 C 11,1 C 92 % 1012,8 hPa 0,0 l/m 0 min 0 min 0,0 UV-I 0 W/m 2,6 km/h (1 Bft)
21.10.2013 03:46 12,6 C 11,1 C 92 % 1012,9 hPa 0,0 l/m 0 min 0 min 0,0 UV-I 0 W/m 0,0 km/h (0 Bft)
21.10.2013 03:48 12,6 C 11,1 C 93 % 1012,9 hPa 0,0 l/m 0 min 0 min 0,0 UV-I 0 W/m 10,3 km/h (2 Bft)
21.10.2013 03:50 12,6 C 11,1 C 93 % 1012,8 hPa 0,0 l/m 0 min 0 min 0,0 UV-I 0 W/m 0,0 km/h (0 Bft)
21.10.2013 03:52 12,6 C 11,1 C 93 % 1012,8 hPa 0,0 l/m 0 min 0 min 0,0 UV-I 0 W/m 7,7 km/h (2 Bft)
21.10.2013 03:54 12,5 C 10,6 C 93 % 1012,8 hPa 0,0 l/m 0 min 0 min 0,0 UV-I 0 W/m 0,0 km/h (0 Bft)
21.10.2013 03:56 12,4 C 10,6 C 93 % 1012,8 hPa 0,0 l/m 0 min 0 min 0,0 UV-I 0 W/m 2,6 km/h (1 Bft)
21.10.2013 03:58 12,4 C 10,6 C 93 % 1012,8 hPa 0,0 l/m 0 min 0 min 0,0 UV-I 0 W/m 7,7 km/h (2 Bft)
21.10.2013 04:00 12,4 C 10,6 C 93 % 1012,8 hPa 0,0 l/m 0 min 0 min 0,0 UV-I 0 W/m 0,0 km/h (0 Bft)
21.10.2013 04:02 12,4 C 10,6 C 93 % 1012,8 hPa 0,0 l/m 0 min 0 min 0,0 UV-I 0 W/m 0,0 km/h (0 Bft)
21.10.2013 04:06 12,3 C 10,6 C 93 % 1012,9 hPa 0,0 l/m 0 min 0 min 0,0 UV-I 0 W/m 2,6 km/h (1 Bft)
21.10.2013 04:08 12,3 C 10,6 C 93 % 1012,8 hPa 0,0 l/m 0 min 0 min 0,0 UV-I 0 W/m 0,0 km/h (0 Bft)
21.10.2013 04:10 12,3 C 10,6 C 93 % 1012,7 hPa 0,0 l/m 0 min 0 min 0,0 UV-I 0 W/m 2,6 km/h (1 Bft)
21.10.2013 04:12 12,3 C 10,6 C 93 % 1012,7 hPa 0,0 l/m 0 min 0 min 0,0 UV-I 0 W/m 10,3 km/h (2 Bft)
21.10.2013 04:14 12,3 C 10,6 C 94 % 1012,6 hPa 0,0 l/m 0 min 0 min 0,0 UV-I 0 W/m 0,0 km/h (0 Bft)
21.10.2013 04:16 12,3 C 10,6 C 94 % 1012,7 hPa 0,0 l/m 0 min 0 min 0,0 UV-I 0 W/m 0,0 km/h (0 Bft)
21.10.2013 04:18 12,3 C 10,6 C 94 % 1012,7 hPa 0,0 l/m 0 min 0 min 0,0 UV-I 0 W/m 0,0 km/h (0 Bft)
21.10.2013 04:20 12,3 C 10,6 C 94 % 1012,6 hPa 0,0 l/m 0 min 0 min 0,0 UV-I 0 W/m 2,6 km/h (1 Bft)
21.10.2013 04:22 12,2 C 10,6 C 94 % 1012,6 hPa 0,0 l/m 0 min 0 min 0,0 UV-I 0 W/m 2,6 km/h (1 Bft)
21.10.2013 04:24 12,2 C 10,6 C 94 % 1012,6 hPa 0,0 l/m 0 min 0 min 0,0 UV-I 0 W/m 7,7 km/h (2 Bft)
21.10.2013 04:26 12,2 C 10,6 C 94 % 1012,6 hPa 0,0 l/m 0 min 0 min 0,0 UV-I 0 W/m 0,0 km/h (0 Bft)
21.10.2013 04:28 12,2 C 10,6 C 94 % 1012,6 hPa 0,0 l/m 0 min 0 min 0,0 UV-I 0 W/m 0,0 km/h (0 Bft)
21.10.2013 04:30 12,2 C 10,6 C 94 % 1012,5 hPa 0,0 l/m 0 min 0 min 0,0 UV-I 0 W/m 5,1 km/h (1 Bft)
21.10.2013 04:32 12,2 C 10,6 C 94 % 1012,5 hPa 0,0 l/m 0 min 0 min 0,0 UV-I 0 W/m 0,0 km/h (0 Bft)
21.10.2013 04:34 12,2 C 10,6 C 94 % 1012,5 hPa 0,0 l/m 0 min 0 min 0,0 UV-I 0 W/m 0,0 km/h (0 Bft)
21.10.2013 04:36 12,2 C 10,6 C 94 % 1012,5 hPa 0,0 l/m 0 min 0 min 0,0 UV-I 0 W/m 2,6 km/h (1 Bft)
21.10.2013 04:38 12,2 C 10,6 C 94 % 1012,6 hPa 0,0 l/m 0 min 0 min 0,0 UV-I 0 W/m 5,1 km/h (1 Bft)
21.10.2013 04:40 12,2 C 10,6 C 94 % 1012,5 hPa 0,0 l/m 0 min 0 min 0,0 UV-I 0 W/m 2,6 km/h (1 Bft)
21.10.2013 04:42 12,2 C 10,6 C 94 % 1012,5 hPa 0,0 l/m 0 min 0 min 0,0 UV-I 0 W/m 0,0 km/h (0 Bft)
21.10.2013 04:44 12,3 C 10,6 C 94 % 1012,5 hPa 0,0 l/m 0 min 0 min 0,0 UV-I 0 W/m 0,0 km/h (0 Bft)
21.10.2013 04:46 12,3 C 10,6 C 94 % 1012,6 hPa 0,0 l/m 0 min 0 min 0,0 UV-I 0 W/m 2,6 km/h (1 Bft)
21.10.2013 04:48 12,3 C 10,6 C 95 % 1012,5 hPa 0,0 l/m 0 min 0 min 0,0 UV-I 0 W/m 0,0 km/h (0 Bft)
21.10.2013 04:50 12,3 C 10,6 C 94 % 1012,6 hPa 0,0 l/m 0 min 0 min 0,0 UV-I 0 W/m 0,0 km/h (0 Bft)
21.10.2013 04:52 12,3 C 10,6 C 94 % 1012,6 hPa 0,0 l/m 0 min 0 min 0,0 UV-I 0 W/m 0,0 km/h (0 Bft)
21.10.2013 04:54 12,3 C 10,6 C 94 % 1012,6 hPa 0,0 l/m 0 min 0 min 0,0 UV-I 0 W/m 0,0 km/h (0 Bft)
21.10.2013 04:56 12,3 C 10,6 C 94 % 1012,6 hPa 0,0 l/m 0 min 0 min 0,0 UV-I 0 W/m 0,0 km/h (0 Bft)
21.10.2013 04:58 12,2 C 10,6 C 94 % 1012,6 hPa 0,0 l/m 0 min 0 min 0,0 UV-I 0 W/m 0,0 km/h (0 Bft)
21.10.2013 05:00 12,2 C 10,6 C 95 % 1012,6 hPa 0,0 l/m 0 min 0 min 0,0 UV-I 0 W/m 0,0 km/h (0 Bft)
21.10.2013 05:02 12,2 C 10,6 C 95 % 1012,5 hPa 0,0 l/m 0 min 0 min 0,0 UV-I 0 W/m 7,7 km/h (2 Bft)
21.10.2013 05:06 12,3 C 10,6 C 95 % 1012,5 hPa 0,0 l/m 0 min 0 min 0,0 UV-I 0 W/m 7,7 km/h (2 Bft)
21.10.2013 05:08 12,3 C 11,1 C 95 % 1012,6 hPa 0,0 l/m 0 min 0 min 0,0 UV-I 0 W/m 7,7 km/h (2 Bft)
21.10.2013 05:10 12,3 C 11,1 C 95 % 1012,5 hPa 0,0 l/m 0 min 0 min 0,0 UV-I 0 W/m 7,7 km/h (2 Bft)
21.10.2013 05:12 12,4 C 11,1 C 95 % 1012,5 hPa 0,0 l/m 0 min 0 min 0,0 UV-I 0 W/m 0,0 km/h (0 Bft)
21.10.2013 05:14 12,4 C 11,1 C 95 % 1012,6 hPa 0,0 l/m 0 min 0 min 0,0 UV-I 0 W/m 2,6 km/h (1 Bft)
21.10.2013 05:16 12,4 C 11,1 C 95 % 1012,6 hPa 0,0 l/m 0 min 0 min 0,0 UV-I 0 W/m 2,6 km/h (1 Bft)
21.10.2013 05:18 12,4 C 11,1 C 95 % 1012,5 hPa 0,0 l/m 0 min 0 min 0,0 UV-I 0 W/m 0,0 km/h (0 Bft)
21.10.2013 05:20 12,4 C 11,1 C 94 % 1012,5 hPa 0,0 l/m 0 min 0 min 0,0 UV-I 0 W/m 0,0 km/h (0 Bft)
21.10.2013 05:22 12,4 C 11,1 C 94 % 1012,5 hPa 0,0 l/m 0 min 0 min 0,0 UV-I 0 W/m 15,4 km/h (3 Bft)
21.10.2013 05:24 12,4 C 11,1 C 94 % 1012,5 hPa 0,0 l/m 0 min 0 min 0,0 UV-I 0 W/m 0,0 km/h (0 Bft)
21.10.2013 05:26 12,4 C 10,6 C 94 % 1012,6 hPa 0,0 l/m 0 min 0 min 0,0 UV-I 0 W/m 0,0 km/h (0 Bft)
21.10.2013 05:28 12,4 C 10,6 C 94 % 1012,5 hPa 0,0 l/m 0 min 0 min 0,0 UV-I 0 W/m 7,7 km/h (2 Bft)
21.10.2013 05:30 12,4 C 10,6 C 94 % 1012,6 hPa 0,0 l/m 0 min 0 min 0,0 UV-I 0 W/m 0,0 km/h (0 Bft)
21.10.2013 05:32 12,4 C 10,6 C 94 % 1012,6 hPa 0,0 l/m 0 min 0 min 0,0 UV-I 0 W/m 5,1 km/h (1 Bft)
21.10.2013 05:34 12,4 C 10,6 C 94 % 1012,6 hPa 0,0 l/m 0 min 0 min 0,0 UV-I 0 W/m 10,3 km/h (2 Bft)
21.10.2013 05:36 12,4 C 10,6 C 94 % 1012,5 hPa 0,0 l/m 0 min 0 min 0,0 UV-I 0 W/m 0,0 km/h (0 Bft)
21.10.2013 05:38 12,3 C 10,6 C 94 % 1012,6 hPa 0,0 l/m 0 min 0 min 0,0 UV-I 0 W/m 2,6 km/h (1 Bft)
21.10.2013 05:40 12,3 C 10,6 C 94 % 1012,6 hPa 0,0 l/m 0 min 0 min 0,0 UV-I 0 W/m 5,1 km/h (1 Bft)
21.10.2013 05:42 12,3 C 10,6 C 94 % 1012,6 hPa 0,0 l/m 0 min 0 min 0,0 UV-I 0 W/m 5,1 km/h (1 Bft)
21.10.2013 05:44 12,3 C 10,6 C 94 % 1012,6 hPa 0,0 l/m 0 min 0 min 0,0 UV-I 0 W/m 2,6 km/h (1 Bft)
21.10.2013 05:46 12,3 C 10,6 C 94 % 1012,6 hPa 0,0 l/m 0 min 0 min 0,0 UV-I 0 W/m 0,0 km/h (0 Bft)
21.10.2013 05:48 12,3 C 10,6 C 94 % 1012,6 hPa 0,0 l/m 0 min 0 min 0,0 UV-I 0 W/m 0,0 km/h (0 Bft)
21.10.2013 05:50 12,3 C 10,6 C 94 % 1012,6 hPa 0,0 l/m 0 min 0 min 0,0 UV-I 0 W/m 2,6 km/h (1 Bft)
21.10.2013 05:52 12,3 C 10,6 C 94 % 1012,6 hPa 0,0 l/m 0 min 0 min 0,0 UV-I 0 W/m 0,0 km/h (0 Bft)
21.10.2013 05:54 12,3 C 10,6 C 95 % 1012,6 hPa 0,0 l/m 0 min 0 min 0,0 UV-I 0 W/m 0,0 km/h (0 Bft)
21.10.2013 05:56 12,3 C 10,6 C 95 % 1012,7 hPa 0,0 l/m 0 min 0 min 0,0 UV-I 0 W/m 7,7 km/h (2 Bft)
21.10.2013 05:58 12,3 C 10,6 C 95 % 1012,6 hPa 0,0 l/m 0 min 0 min 0,0 UV-I 0 W/m 0,0 km/h (0 Bft)
21.10.2013 06:00 12,3 C 10,6 C 95 % 1012,6 hPa 0,0 l/m 0 min 0 min 0,0 UV-I 0 W/m 0,0 km/h (0 Bft)
21.10.2013 06:02 12,3 C 10,6 C 95 % 1012,6 hPa 0,0 l/m 0 min 0 min 0,0 UV-I 0 W/m 5,1 km/h (1 Bft)
21.10.2013 06:06 12,3 C 10,6 C 95 % 1012,6 hPa 0,0 l/m 0 min 0 min 0,0 UV-I 0 W/m 0,0 km/h (0 Bft)
21.10.2013 06:08 12,3 C 10,6 C 95 % 1012,6 hPa 0,0 l/m 0 min 0 min 0,0 UV-I 0 W/m 0,0 km/h (0 Bft)
21.10.2013 06:10 12,2 C 10,6 C 95 % 1012,7 hPa 0,0 l/m 0 min 0 min 0,0 UV-I 0 W/m 0,0 km/h (0 Bft)
21.10.2013 06:12 12,3 C 10,6 C 95 % 1012,7 hPa 0,0 l/m 0 min 0 min 0,0 UV-I 0 W/m 2,6 km/h (1 Bft)
21.10.2013 06:14 12,2 C 10,6 C 95 % 1012,7 hPa 0,0 l/m 0 min 0 min 0,0 UV-I 0 W/m 0,0 km/h (0 Bft)
21.10.2013 06:16 12,2 C 10,6 C 95 % 1012,7 hPa 0,0 l/m 0 min 0 min 0,0 UV-I 0 W/m 0,0 km/h (0 Bft)
21.10.2013 06:18 12,2 C 10,6 C 95 % 1012,6 hPa 0,0 l/m 0 min 0 min 0,0 UV-I 0 W/m 0,0 km/h (0 Bft)
21.10.2013 06:20 12,2 C 10,6 C 95 % 1012,6 hPa 0,0 l/m 0 min 0 min 0,0 UV-I 0 W/m 0,0 km/h (0 Bft)
21.10.2013 06:22 12,2 C 10,6 C 95 % 1012,6 hPa 0,0 l/m 0 min 0 min 0,0 UV-I 0 W/m 0,0 km/h (0 Bft)
21.10.2013 06:24 12,2 C 10,6 C 95 % 1012,6 hPa 0,0 l/m 0 min 0 min 0,0 UV-I 0 W/m 0,0 km/h (0 Bft)
21.10.2013 06:26 12,2 C 10,6 C 95 % 1012,5 hPa 0,0 l/m 0 min 0 min 0,0 UV-I 0 W/m 0,0 km/h (0 Bft)
21.10.2013 06:28 12,2 C 10,6 C 95 % 1012,4 hPa 0,0 l/m 0 min 0 min 0,0 UV-I 0 W/m 0,0 km/h (0 Bft)
21.10.2013 06:30 12,2 C 10,6 C 95 % 1012,4 hPa 0,0 l/m 0 min 0 min 0,0 UV-I 0 W/m 0,0 km/h (0 Bft)
21.10.2013 06:32 12,1 C 10,6 C 95 % 1012,6 hPa 0,0 l/m 0 min 0 min 0,0 UV-I 0 W/m 0,0 km/h (0 Bft)
21.10.2013 06:34 12,1 C 10,6 C 95 % 1012,6 hPa 0,0 l/m 0 min 0 min 0,0 UV-I 0 W/m 0,0 km/h (0 Bft)
21.10.2013 06:36 12,1 C 10,6 C 95 % 1012,5 hPa 0,0 l/m 0 min 0 min 0,0 UV-I 0 W/m 0,0 km/h (0 Bft)
21.10.2013 06:38 12,1 C 10,6 C 95 % 1012,6 hPa 0,0 l/m 0 min 0 min 0,0 UV-I 0 W/m 0,0 km/h (0 Bft)
21.10.2013 06:40 12,0 C 10,0 C 95 % 1012,5 hPa 0,0 l/m 0 min 0 min 0,0 UV-I 0 W/m 0,0 km/h (0 Bft)
21.10.2013 06:42 12,0 C 10,0 C 95 % 1012,5 hPa 0,0 l/m 0 min 0 min 0,0 UV-I 0 W/m 0,0 km/h (0 Bft)
21.10.2013 06:44 11,9 C 10,0 C 95 % 1012,5 hPa 0,0 l/m 0 min 0 min 0,0 UV-I 0 W/m 0,0 km/h (0 Bft)
21.10.2013 06:46 11,9 C 10,0 C 95 % 1012,4 hPa 0,0 l/m 0 min 0 min 0,0 UV-I 0 W/m 5,1 km/h (1 Bft)
21.10.2013 06:48 11,9 C 10,0 C 95 % 1012,4 hPa 0,0 l/m 0 min 0 min 0,0 UV-I 0 W/m 2,6 km/h (1 Bft)
21.10.2013 06:50 11,9 C 10,0 C 95 % 1012,5 hPa 0,0 l/m 0 min 0 min 0,0 UV-I 0 W/m 0,0 km/h (0 Bft)
21.10.2013 06:52 11,9 C 10,0 C 95 % 1012,5 hPa 0,0 l/m 0 min 0 min 0,0 UV-I 0 W/m 0,0 km/h (0 Bft)
21.10.2013 06:54 11,9 C 10,0 C 95 % 1012,5 hPa 0,0 l/m 0 min 0 min 0,0 UV-I 0 W/m 0,0 km/h (0 Bft)
21.10.2013 06:56 11,9 C 10,6 C 95 % 1012,6 hPa 0,0 l/m 0 min 0 min 0,0 UV-I 0 W/m 2,6 km/h (1 Bft)
21.10.2013 06:58 11,9 C 10,6 C 95 % 1012,5 hPa 0,0 l/m 0 min 0 min 0,0 UV-I 0 W/m 0,0 km/h (0 Bft)
21.10.2013 07:00 11,9 C 10,6 C 96 % 1012,5 hPa 0,0 l/m 0 min 0 min 0,0 UV-I 0 W/m 2,6 km/h (1 Bft)
21.10.2013 07:02 11,9 C 10,6 C 95 % 1012,5 hPa 0,0 l/m 0 min 0 min 0,0 UV-I 0 W/m 0,0 km/h (0 Bft)
21.10.2013 07:06 11,9 C 10,6 C 96 % 1012,5 hPa 0,0 l/m 0 min 0 min 0,0 UV-I 0 W/m 2,6 km/h (1 Bft)
21.10.2013 07:08 11,9 C 10,6 C 96 % 1012,5 hPa 0,0 l/m 0 min 0 min 0,0 UV-I 0 W/m 0,0 km/h (0 Bft)
21.10.2013 07:10 11,9 C 10,6 C 96 % 1012,4 hPa 0,0 l/m 0 min 0 min 0,0 UV-I 0 W/m 0,0 km/h (0 Bft)
21.10.2013 07:12 12,0 C 10,6 C 96 % 1012,5 hPa 0,0 l/m 0 min 0 min 0,0 UV-I 0 W/m 0,0 km/h (0 Bft)
21.10.2013 07:14 12,0 C 10,6 C 96 % 1012,5 hPa 0,0 l/m 0 min 0 min 0,0 UV-I 0 W/m 0,0 km/h (0 Bft)
21.10.2013 07:16 12,0 C 10,6 C 96 % 1012,5 hPa 0,0 l/m 0 min 0 min 0,0 UV-I 0 W/m 2,6 km/h (1 Bft)
21.10.2013 07:18 12,0 C 10,6 C 96 % 1012,4 hPa 0,0 l/m 0 min 0 min 0,0 UV-I 0 W/m 0,0 km/h (0 Bft)
21.10.2013 07:20 12,1 C 10,6 C 96 % 1012,4 hPa 0,0 l/m 0 min 0 min 0,0 UV-I 0 W/m 0,0 km/h (0 Bft)
21.10.2013 07:22 12,1 C 10,6 C 96 % 1012,5 hPa 0,0 l/m 0 min 0 min 0,0 UV-I 0 W/m 0,0 km/h (0 Bft)
21.10.2013 07:24 12,1 C 10,6 C 96 % 1012,5 hPa 0,0 l/m 0 min 0 min 0,0 UV-I 0 W/m 2,6 km/h (1 Bft)
21.10.2013 07:26 12,1 C 10,6 C 96 % 1012,6 hPa 0,0 l/m 0 min 0 min 0,0 UV-I 0 W/m 0,0 km/h (0 Bft)
21.10.2013 07:28 12,1 C 10,6 C 96 % 1012,6 hPa 0,0 l/m 0 min 0 min 0,0 UV-I 0 W/m 0,0 km/h (0 Bft)
21.10.2013 07:30 12,1 C 10,6 C 96 % 1012,6 hPa 0,0 l/m 0 min 0 min 0,0 UV-I 0 W/m 2,6 km/h (1 Bft)
21.10.2013 07:32 12,1 C 10,6 C 96 % 1012,6 hPa 0,0 l/m 0 min 0 min 0,0 UV-I 0 W/m 0,0 km/h (0 Bft)
21.10.2013 07:34 12,1 C 11,1 C 96 % 1012,6 hPa 0,0 l/m 0 min 0 min 0,0 UV-I 0 W/m 0,0 km/h (0 Bft)
21.10.2013 07:36 12,1 C 11,1 C 96 % 1012,6 hPa 0,0 l/m 0 min 2 min 0,0 UV-I 0 W/m 0,0 km/h (0 Bft)
21.10.2013 07:38 12,1 C 11,1 C 96 % 1012,6 hPa 0,0 l/m 0 min 0 min 0,0 UV-I 0 W/m 0,0 km/h (0 Bft)
21.10.2013 07:40 12,1 C 11,1 C 96 % 1012,7 hPa 0,0 l/m 0 min 0 min 0,0 UV-I 0 W/m 0,0 km/h (0 Bft)
21.10.2013 07:42 12,1 C 11,1 C 96 % 1012,7 hPa 0,0 l/m 0 min 0 min 0,0 UV-I 0 W/m 2,6 km/h (1 Bft)
21.10.2013 07:44 12,1 C 11,1 C 96 % 1012,6 hPa 0,0 l/m 0 min 0 min 0,0 UV-I 0 W/m 0,0 km/h (0 Bft)
21.10.2013 07:46 12,1 C 11,1 C 96 % 1012,7 hPa 0,0 l/m 0 min 2 min 0,0 UV-I 0 W/m 0,0 km/h (0 Bft)
21.10.2013 07:48 12,1 C 11,1 C 96 % 1012,8 hPa 0,0 l/m 0 min 0 min 0,0 UV-I 0 W/m 0,0 km/h (0 Bft)
21.10.2013 07:50 12,2 C 11,1 C 96 % 1012,7 hPa 0,0 l/m 0 min 0 min 0,0 UV-I 0 W/m 0,0 km/h (0 Bft)
21.10.2013 07:52 12,2 C 11,1 C 96 % 1012,7 hPa 0,0 l/m 0 min 0 min 0,0 UV-I 0 W/m 0,0 km/h (0 Bft)
21.10.2013 07:54 12,2 C 11,1 C 96 % 1012,7 hPa 0,0 l/m 0 min 0 min 0,0 UV-I 0 W/m 0,0 km/h (0 Bft)
21.10.2013 07:56 12,2 C 11,1 C 96 % 1012,7 hPa 0,0 l/m 0 min 0 min 0,0 UV-I 0 W/m 0,0 km/h (0 Bft)
21.10.2013 07:58 12,2 C 11,1 C 96 % 1012,7 hPa 0,0 l/m 0 min 0 min 0,0 UV-I 0 W/m 2,6 km/h (1 Bft)
21.10.2013 08:00 12,2 C 11,1 C 96 % 1012,8 hPa 0,0 l/m 0 min 0 min 0,0 UV-I 0 W/m 0,0 km/h (0 Bft)
21.10.2013 08:02 12,2 C 11,1 C 96 % 1012,7 hPa 0,0 l/m 0 min 0 min 0,0 UV-I 0 W/m 0,0 km/h (0 Bft)
21.10.2013 08:06 12,3 C 11,1 C 96 % 1012,8 hPa 0,0 l/m 0 min 0 min 0,0 UV-I 0 W/m 5,1 km/h (1 Bft)
21.10.2013 08:08 12,3 C 11,1 C 96 % 1012,7 hPa 0,0 l/m 0 min 2 min 0,0 UV-I 0 W/m 5,1 km/h (1 Bft)
21.10.2013 08:10 12,3 C 11,1 C 96 % 1012,7 hPa 0,0 l/m 0 min 0 min 0,0 UV-I 0 W/m 0,0 km/h (0 Bft)
21.10.2013 08:12 12,3 C 11,1 C 96 % 1012,7 hPa 0,0 l/m 0 min 0 min 0,0 UV-I 0 W/m 0,0 km/h (0 Bft)
21.10.2013 08:14 12,4 C 11,1 C 96 % 1012,8 hPa 0,0 l/m 0 min 0 min 0,0 UV-I 0 W/m 7,7 km/h (2 Bft)
21.10.2013 08:16 12,4 C 11,1 C 96 % 1012,8 hPa 0,0 l/m 0 min 0 min 0,0 UV-I 0 W/m 0,0 km/h (0 Bft)
21.10.2013 08:18 12,4 C 11,1 C 96 % 1012,8 hPa 0,0 l/m 0 min 0 min 0,0 UV-I 0 W/m 0,0 km/h (0 Bft)
21.10.2013 08:20 12,4 C 11,1 C 96 % 1012,8 hPa 0,0 l/m 0 min 0 min 0,0 UV-I 0 W/m 0,0 km/h (0 Bft)
21.10.2013 08:22 12,4 C 11,1 C 97 % 1012,8 hPa 0,0 l/m 0 min 0 min 0,0 UV-I 0 W/m 0,0 km/h (0 Bft)
21.10.2013 08:24 12,4 C 11,1 C 97 % 1012,8 hPa 0,0 l/m 0 min 2 min 0,0 UV-I 5 W/m 2,6 km/h (1 Bft)
21.10.2013 08:26 12,4 C 11,1 C 97 % 1012,8 hPa 0,0 l/m 0 min 2 min 0,0 UV-I 5 W/m 0,0 km/h (0 Bft)
21.10.2013 08:28 12,5 C 11,1 C 97 % 1012,8 hPa 0,0 l/m 0 min 0 min 0,0 UV-I 5 W/m 0,0 km/h (0 Bft)
21.10.2013 08:30 12,5 C 11,1 C 97 % 1012,8 hPa 0,0 l/m 0 min 0 min 0,0 UV-I 5 W/m 5,1 km/h (1 Bft)
21.10.2013 08:32 12,5 C 11,7 C 97 % 1012,8 hPa 0,0 l/m 0 min 0 min 0,0 UV-I 7 W/m 2,6 km/h (1 Bft)
21.10.2013 08:34 12,5 C 11,7 C 97 % 1012,9 hPa 0,0 l/m 0 min 0 min 0,0 UV-I 7 W/m 0,0 km/h (0 Bft)
21.10.2013 08:36 12,5 C 11,7 C 97 % 1012,9 hPa 0,0 l/m 0 min 0 min 0,0 UV-I 9 W/m 0,0 km/h (0 Bft)
21.10.2013 08:38 12,6 C 11,7 C 97 % 1012,9 hPa 0,0 l/m 0 min 0 min 0,0 UV-I 9 W/m 7,7 km/h (2 Bft)
21.10.2013 08:40 12,6 C 11,7 C 97 % 1012,9 hPa 0,0 l/m 0 min 0 min 0,0 UV-I 11 W/m 0,0 km/h (0 Bft)
21.10.2013 08:42 12,6 C 11,7 C 97 % 1013,0 hPa 0,0 l/m 0 min 0 min 0,0 UV-I 12 W/m 5,1 km/h (1 Bft)
21.10.2013 08:44 12,7 C 11,7 C 97 % 1013,0 hPa 0,0 l/m 0 min 0 min 0,0 UV-I 12 W/m 15,4 km/h (3 Bft)
21.10.2013 08:46 12,7 C 11,7 C 97 % 1013,0 hPa 0,0 l/m 0 min 0 min 0,0 UV-I 12 W/m 0,0 km/h (0 Bft)
21.10.2013 08:48 12,7 C 11,7 C 97 % 1013,0 hPa 0,0 l/m 0 min 0 min 0,0 UV-I 12 W/m 0,0 km/h (0 Bft)
21.10.2013 08:50 12,8 C 11,7 C 97 % 1013,1 hPa 0,0 l/m 0 min 0 min 0,0 UV-I 14 W/m 0,0 km/h (0 Bft)
21.10.2013 08:52 12,8 C 12,2 C 97 % 1013,1 hPa 0,0 l/m 0 min 0 min 0,0 UV-I 16 W/m 7,7 km/h (2 Bft)
21.10.2013 08:54 12,8 C 12,2 C 97 % 1013,1 hPa 0,0 l/m 0 min 0 min 0,0 UV-I 16 W/m 0,0 km/h (0 Bft)
21.10.2013 08:56 12,9 C 12,2 C 97 % 1013,2 hPa 0,0 l/m 0 min 0 min 0,0 UV-I 18 W/m 2,6 km/h (1 Bft)
21.10.2013 08:58 12,9 C 12,2 C 97 % 1013,2 hPa 0,0 l/m 0 min 0 min 0,0 UV-I 18 W/m 5,1 km/h (1 Bft)
21.10.2013 09:00 12,9 C 12,2 C 97 % 1013,2 hPa 0,0 l/m 0 min 0 min 0,0 UV-I 18 W/m 0,0 km/h (0 Bft)
21.10.2013 09:02 13,0 C 12,2 C 97 % 1013,2 hPa 0,0 l/m 0 min 0 min 0,0 UV-I 18 W/m 2,6 km/h (1 Bft)
21.10.2013 09:06 13,1 C 12,2 C 97 % 1013,2 hPa 0,0 l/m 0 min 0 min 0,0 UV-I 19 W/m 0,0 km/h (0 Bft)
21.10.2013 09:08 13,1 C 12,2 C 97 % 1013,2 hPa 0,0 l/m 0 min 0 min 0,0 UV-I 21 W/m 10,3 km/h (2 Bft)
21.10.2013 09:10 13,1 C 12,2 C 97 % 1013,2 hPa 0,0 l/m 0 min 0 min 0,0 UV-I 23 W/m 0,0 km/h (0 Bft)
21.10.2013 09:12 13,2 C 12,2 C 97 % 1013,2 hPa 0,0 l/m 0 min 0 min 0,0 UV-I 26 W/m 0,0 km/h (0 Bft)
21.10.2013 09:14 13,2 C 12,2 C 97 % 1013,2 hPa 0,0 l/m 0 min 0 min 0,0 UV-I 28 W/m 0,0 km/h (0 Bft)
21.10.2013 09:16 13,2 C 12,8 C 97 % 1013,3 hPa 0,0 l/m 0 min 0 min 0,0 UV-I 30 W/m 7,7 km/h (2 Bft)
21.10.2013 09:18 13,3 C 12,8 C 97 % 1013,2 hPa 0,0 l/m 0 min 0 min 0,0 UV-I 28 W/m 7,7 km/h (2 Bft)
21.10.2013 09:20 13,3 C 12,8 C 97 % 1013,3 hPa 0,0 l/m 0 min 0 min 0,0 UV-I 28 W/m 5,1 km/h (1 Bft)
21.10.2013 09:22 13,3 C 12,8 C 97 % 1013,2 hPa 0,0 l/m 0 min 0 min 0,0 UV-I 30 W/m 10,3 km/h (2 Bft)
21.10.2013 09:24 13,4 C 12,8 C 97 % 1013,3 hPa 0,0 l/m 0 min 0 min 0,0 UV-I 28 W/m 5,1 km/h (1 Bft)
21.10.2013 09:26 13,4 C 12,8 C 97 % 1013,3 hPa 0,0 l/m 0 min 0 min 0,0 UV-I 26 W/m 0,0 km/h (0 Bft)
21.10.2013 09:28 13,5 C 12,8 C 97 % 1013,3 hPa 0,0 l/m 0 min 0 min 0,0 UV-I 28 W/m 5,1 km/h (1 Bft)
21.10.2013 09:30 13,5 C 12,8 C 97 % 1013,3 hPa 0,0 l/m 0 min 0 min 0,0 UV-I 30 W/m 5,1 km/h (1 Bft)
21.10.2013 09:32 13,6 C 12,8 C 97 % 1013,3 hPa 0,0 l/m 0 min 0 min 0,0 UV-I 33 W/m 10,3 km/h (2 Bft)
21.10.2013 09:34 13,6 C 12,8 C 97 % 1013,3 hPa 0,0 l/m 0 min 0 min 0,0 UV-I 35 W/m 0,0 km/h (0 Bft)
21.10.2013 09:36 13,6 C 12,8 C 97 % 1013,3 hPa 0,0 l/m 0 min 0 min 0,0 UV-I 33 W/m 2,6 km/h (1 Bft)
21.10.2013 09:38 13,7 C 12,8 C 97 % 1013,4 hPa 0,0 l/m 0 min 0 min 0,0 UV-I 35 W/m 10,3 km/h (2 Bft)
21.10.2013 09:40 13,7 C 12,8 C 97 % 1013,3 hPa 0,0 l/m 0 min 0 min 0,0 UV-I 37 W/m 0,0 km/h (0 Bft)
21.10.2013 09:42 13,7 C 12,8 C 97 % 1013,3 hPa 0,0 l/m 0 min 0 min 0,0 UV-I 42 W/m 0,0 km/h (0 Bft)
21.10.2013 09:44 13,8 C 12,8 C 96 % 1013,3 hPa 0,0 l/m 0 min 0 min 0,0 UV-I 44 W/m 5,1 km/h (1 Bft)
21.10.2013 09:46 13,8 C 13,3 C 96 % 1013,3 hPa 0,0 l/m 0 min 0 min 0,0 UV-I 46 W/m 2,6 km/h (1 Bft)
21.10.2013 09:48 13,8 C 13,3 C 96 % 1013,3 hPa 0,0 l/m 0 min 0 min 0,0 UV-I 51 W/m 0,0 km/h (0 Bft)
21.10.2013 09:50 13,9 C 13,3 C 96 % 1013,3 hPa 0,0 l/m 0 min 0 min 0,0 UV-I 54 W/m 5,1 km/h (1 Bft)
21.10.2013 09:52 13,9 C 13,3 C 96 % 1013,4 hPa 0,0 l/m 0 min 0 min 0,0 UV-I 60 W/m 0,0 km/h (0 Bft)
21.10.2013 09:54 13,9 C 13,3 C 96 % 1013,3 hPa 0,0 l/m 0 min 0 min 0,0 UV-I 62 W/m 0,0 km/h (0 Bft)
21.10.2013 09:56 14,0 C 13,3 C 96 % 1013,3 hPa 0,0 l/m 0 min 0 min 0,0 UV-I 63 W/m 2,6 km/h (1 Bft)
21.10.2013 09:58 14,1 C 13,3 C 96 % 1013,3 hPa 0,0 l/m 0 min 0 min 0,0 UV-I 62 W/m 7,7 km/h (2 Bft)
21.10.2013 10:00 14,1 C 13,3 C 96 % 1013,3 hPa 0,0 l/m 0 min 0 min 0,0 UV-I 62 W/m 0,0 km/h (0 Bft)
21.10.2013 10:02 14,2 C 13,3 C 98 % 1013,3 hPa 0,0 l/m 0 min 0 min 0,0 UV-I 67 W/m 5,1 km/h (1 Bft)
21.10.2013 10:06 14,2 C 13,3 C 96 % 1013,3 hPa 0,0 l/m 0 min 0 min 0,0 UV-I 81 W/m 10,3 km/h (2 Bft)
21.10.2013 10:08 14,3 C 13,9 C 95 % 1013,3 hPa 0,0 l/m 0 min 0 min 0,0 UV-I 81 W/m 12,9 km/h (3 Bft)
21.10.2013 10:10 14,4 C 13,9 C 95 % 1013,4 hPa 0,0 l/m 0 min 0 min 0,0 UV-I 84 W/m 2,6 km/h (1 Bft)
21.10.2013 10:12 14,6 C 13,9 C 95 % 1013,4 hPa 0,0 l/m 0 min 0 min 0,0 UV-I 90 W/m 0,0 km/h (0 Bft)
21.10.2013 10:14 14,6 C 13,9 C 94 % 1013,3 hPa 0,0 l/m 0 min 0 min 0,0 UV-I 95 W/m 0,0 km/h (0 Bft)
21.10.2013 10:16 14,7 C 13,9 C 94 % 1013,4 hPa 0,0 l/m 0 min 0 min 0,0 UV-I 97 W/m 7,7 km/h (2 Bft)
21.10.2013 10:18 14,7 C 13,9 C 93 % 1013,4 hPa 0,0 l/m 0 min 0 min 0,0 UV-I 90 W/m 5,1 km/h (1 Bft)
21.10.2013 10:20 14,8 C 13,9 C 93 % 1013,4 hPa 0,0 l/m 0 min 0 min 0,0 UV-I 83 W/m 12,9 km/h (3 Bft)
21.10.2013 10:22 14,8 C 13,9 C 92 % 1013,4 hPa 0,0 l/m 0 min 0 min 0,0 UV-I 84 W/m 10,3 km/h (2 Bft)
21.10.2013 10:24 14,8 C 13,9 C 92 % 1013,4 hPa 0,0 l/m 0 min 0 min 0,0 UV-I 91 W/m 7,7 km/h (2 Bft)
21.10.2013 10:26 14,9 C 13,9 C 92 % 1013,4 hPa 0,0 l/m 0 min 2 min 0,0 UV-I 100 W/m 5,1 km/h (1 Bft)
21.10.2013 10:28 14,9 C 13,9 C 92 % 1013,4 hPa 0,0 l/m 0 min 0 min 0,0 UV-I 107 W/m 5,1 km/h (1 Bft)
21.10.2013 10:30 14,9 C 13,9 C 92 % 1013,4 hPa 0,0 l/m 0 min 0 min 0,0 UV-I 111 W/m 5,1 km/h (1 Bft)
21.10.2013 10:32 15,0 C 13,9 C 92 % 1013,3 hPa 0,0 l/m 0 min 0 min 0,0 UV-I 114 W/m 0,0 km/h (0 Bft)
21.10.2013 10:34 15,1 C 14,4 C 91 % 1013,3 hPa 0,0 l/m 0 min 0 min 0,0 UV-I 114 W/m 0,0 km/h (0 Bft)
21.10.2013 10:36 15,1 C 14,4 C 91 % 1013,4 hPa 0,0 l/m 0 min 0 min 0,0 UV-I 109 W/m 2,6 km/h (1 Bft)
21.10.2013 10:38 15,1 C 14,4 C 91 % 1013,3 hPa 0,0 l/m 0 min 0 min 0,0 UV-I 107 W/m 0,0 km/h (0 Bft)
21.10.2013 10:40 15,1 C 13,9 C 91 % 1013,4 hPa 0,0 l/m 0 min 2 min 0,0 UV-I 105 W/m 10,3 km/h (2 Bft)
21.10.2013 10:42 15,2 C 13,9 C 91 % 1013,4 hPa 0,0 l/m 0 min 2 min 0,0 UV-I 102 W/m 7,7 km/h (2 Bft)
21.10.2013 10:44 15,2 C 14,4 C 91 % 1013,4 hPa 0,0 l/m 0 min 0 min 0,0 UV-I 98 W/m 0,0 km/h (0 Bft)
21.10.2013 10:46 15,2 C 14,4 C 91 % 1013,4 hPa 0,0 l/m 0 min 0 min 0,0 UV-I 98 W/m 2,6 km/h (1 Bft)
21.10.2013 10:48 15,2 C 14,4 C 91 % 1013,4 hPa 0,0 l/m 0 min 0 min 0,0 UV-I 98 W/m 2,6 km/h (1 Bft)
21.10.2013 10:50 15,2 C 14,4 C 90 % 1013,4 hPa 0,0 l/m 0 min 0 min 0,0 UV-I 102 W/m 5,1 km/h (1 Bft)
21.10.2013 10:52 15,2 C 14,4 C 90 % 1013,4 hPa 0,0 l/m 0 min 0 min 0,0 UV-I 105 W/m 10,3 km/h (2 Bft)
21.10.2013 10:54 15,2 C 14,4 C 90 % 1013,4 hPa 0,0 l/m 0 min 0 min 0,0 UV-I 105 W/m 7,7 km/h (2 Bft)
21.10.2013 10:56 15,3 C 14,4 C 90 % 1013,4 hPa 0,0 l/m 0 min 0 min 0,0 UV-I 104 W/m 7,7 km/h (2 Bft)
21.10.2013 10:58 15,3 C 14,4 C 90 % 1013,5 hPa 0,0 l/m 0 min 0 min 0,0 UV-I 107 W/m 5,1 km/h (1 Bft)
21.10.2013 11:00 15,3 C 14,4 C 90 % 1013,5 hPa 0,0 l/m 0 min 0 min 0,0 UV-I 111 W/m 10,3 km/h (2 Bft)
21.10.2013 11:02 15,4 C 14,4 C 90 % 1013,5 hPa 0,0 l/m 0 min 0 min 0,0 UV-I 118 W/m 7,7 km/h (2 Bft)
21.10.2013 11:06 15,4 C 14,4 C 90 % 1013,4 hPa 0,0 l/m 0 min 0 min 0,0 UV-I 135 W/m 7,7 km/h (2 Bft)
21.10.2013 11:08 15,4 C 14,4 C 89 % 1013,4 hPa 0,0 l/m 0 min 0 min 0,0 UV-I 146 W/m 7,7 km/h (2 Bft)
21.10.2013 11:10 15,6 C 15,0 C 89 % 1013,4 hPa 0,0 l/m 0 min 0 min 0,0 UV-I 151 W/m 10,3 km/h (2 Bft)
21.10.2013 11:12 15,6 C 15,0 C 89 % 1013,4 hPa 0,0 l/m 0 min 0 min 0,0 UV-I 151 W/m 2,6 km/h (1 Bft)
21.10.2013 11:14 15,6 C 15,0 C 89 % 1013,4 hPa 0,0 l/m 0 min 0 min 0,0 UV-I 149 W/m 15,4 km/h (3 Bft)
21.10.2013 11:16 15,7 C 15,0 C 89 % 1013,5 hPa 0,0 l/m 0 min 0 min 0,0 UV-I 151 W/m 5,1 km/h (1 Bft)
21.10.2013 11:18 15,7 C 15,0 C 89 % 1013,5 hPa 0,0 l/m 0 min 0 min 0,0 UV-I 153 W/m 2,6 km/h (1 Bft)
21.10.2013 11:20 15,8 C 15,0 C 89 % 1013,4 hPa 0,0 l/m 0 min 0 min 0,0 UV-I 158 W/m 7,7 km/h (2 Bft)
21.10.2013 11:22 15,8 C 15,0 C 89 % 1013,4 hPa 0,0 l/m 0 min 0 min 0,0 UV-I 158 W/m 10,3 km/h (2 Bft)
21.10.2013 11:24 15,8 C 15,0 C 88 % 1013,5 hPa 0,0 l/m 0 min 0 min 0,0 UV-I 158 W/m 10,3 km/h (2 Bft)
21.10.2013 11:26 15,9 C 15,0 C 88 % 1013,4 hPa 0,0 l/m 0 min 0 min 0,0 UV-I 167 W/m 2,6 km/h (1 Bft)
21.10.2013 11:28 16,0 C 15,0 C 88 % 1013,4 hPa 0,0 l/m 0 min 0 min 0,0 UV-I 174 W/m 10,3 km/h (2 Bft)
21.10.2013 11:30 16,1 C 15,0 C 88 % 1013,4 hPa 0,0 l/m 0 min 0 min 0,0 UV-I 178 W/m 2,6 km/h (1 Bft)
21.10.2013 11:32 16,1 C 15,6 C 88 % 1013,4 hPa 0,0 l/m 0 min 0 min 0,0 UV-I 174 W/m 7,7 km/h (2 Bft)
21.10.2013 11:34 16,1 C 15,6 C 88 % 1013,5 hPa 0,0 l/m 0 min 0 min 0,0 UV-I 183 W/m 2,6 km/h (1 Bft)
21.10.2013 11:36 16,2 C 15,6 C 87 % 1013,5 hPa 0,0 l/m 0 min 0 min 0,0 UV-I 206 W/m 12,9 km/h (3 Bft)
21.10.2013 11:38 16,2 C 15,6 C 87 % 1013,5 hPa 0,0 l/m 0 min 0 min 0,0 UV-I 218 W/m 18,0 km/h (3 Bft)
21.10.2013 11:40 16,3 C 15,6 C 87 % 1013,4 hPa 0,0 l/m 2 min 0 min 0,0 UV-I 244 W/m 5,1 km/h (1 Bft)
21.10.2013 11:42 16,4 C 15,6 C 87 % 1013,5 hPa 0,0 l/m 0 min 0 min 0,0 UV-I 229 W/m 7,7 km/h (2 Bft)
21.10.2013 11:44 16,5 C 16,1 C 87 % 1013,4 hPa 0,0 l/m 0 min 0 min 0,0 UV-I 227 W/m 0,0 km/h (0 Bft)
21.10.2013 11:46 16,6 C 16,1 C 86 % 1013,5 hPa 0,0 l/m 0 min 0 min 0,0 UV-I 230 W/m 10,3 km/h (2 Bft)
21.10.2013 11:48 16,6 C 16,1 C 86 % 1013,5 hPa 0,0 l/m 0 min 0 min 0,0 UV-I 229 W/m 15,4 km/h (3 Bft)
21.10.2013 11:50 16,6 C 16,1 C 86 % 1013,5 hPa 0,0 l/m 0 min 0 min 0,5 UV-I 232 W/m 2,6 km/h (1 Bft)
21.10.2013 11:52 16,7 C 16,1 C 86 % 1013,5 hPa 0,0 l/m 2 min 0 min 0,5 UV-I 241 W/m 2,6 km/h (1 Bft)
21.10.2013 11:54 16,8 C 16,1 C 86 % 1013,5 hPa 0,0 l/m 2 min 0 min 0,7 UV-I 281 W/m 2,6 km/h (1 Bft)
21.10.2013 11:56 16,9 C 16,1 C 86 % 1013,4 hPa 0,0 l/m 2 min 0 min 0,7 UV-I 281 W/m 0,0 km/h (0 Bft)
21.10.2013 11:58 17,1 C 16,1 C 85 % 1013,5 hPa 0,0 l/m 2 min 0 min 0,8 UV-I 394 W/m 15,4 km/h (3 Bft)
21.10.2013 12:00 17,2 C 16,1 C 84 % 1013,5 hPa 0,0 l/m 2 min 0 min 0,9 UV-I 446 W/m 15,4 km/h (3 Bft)
21.10.2013 12:02 17,4 C 16,1 C 84 % 1013,4 hPa 0,0 l/m 2 min 0 min 0,7 UV-I 454 W/m 15,4 km/h (3 Bft)
21.10.2013 12:06 17,5 C 16,1 C 83 % 1013,5 hPa 0,0 l/m 0 min 0 min 0,6 UV-I 155 W/m 12,9 km/h (3 Bft)
21.10.2013 12:08 17,4 C 16,1 C 82 % 1013,6 hPa 0,0 l/m 0 min 0 min 0,5 UV-I 156 W/m 15,4 km/h (3 Bft)
21.10.2013 12:10 17,2 C 15,6 C 83 % 1013,5 hPa 0,0 l/m 0 min 0 min 0,5 UV-I 162 W/m 7,7 km/h (2 Bft)
21.10.2013 12:12 17,2 C 15,6 C 83 % 1013,5 hPa 0,0 l/m 0 min 0 min 0,7 UV-I 169 W/m 18,0 km/h (3 Bft)
21.10.2013 12:14 17,2 C 15,6 C 83 % 1013,5 hPa 0,0 l/m 0 min 0 min 0,6 UV-I 229 W/m 15,4 km/h (3 Bft)
21.10.2013 12:16 17,1 C 15,6 C 83 % 1013,5 hPa 0,0 l/m 0 min 0 min 0,5 UV-I 204 W/m 15,4 km/h (3 Bft)
21.10.2013 12:18 17,1 C 15,6 C 83 % 1013,5 hPa 0,0 l/m 0 min 0 min 0,6 UV-I 244 W/m 10,3 km/h (2 Bft)
21.10.2013 12:20 17,1 C 15,6 C 83 % 1013,5 hPa 0,0 l/m 0 min 0 min 0,6 UV-I 221 W/m 10,3 km/h (2 Bft)
21.10.2013 12:22 17,2 C 15,6 C 83 % 1013,5 hPa 0,0 l/m 2 min 0 min 0,7 UV-I 290 W/m 7,7 km/h (2 Bft)
21.10.2013 12:24 17,3 C 16,1 C 83 % 1013,6 hPa 0,0 l/m 2 min 0 min 0,8 UV-I 366 W/m 12,9 km/h (3 Bft)
21.10.2013 12:26 17,4 C 16,1 C 84 % 1013,5 hPa 0,0 l/m 2 min 0 min 0,7 UV-I 378 W/m 10,3 km/h (2 Bft)
21.10.2013 12:28 17,7 C 16,1 C 84 % 1013,5 hPa 0,0 l/m 2 min 0 min 0,7 UV-I 404 W/m 7,7 km/h (2 Bft)
21.10.2013 12:30 17,9 C 16,7 C 83 % 1013,5 hPa 0,0 l/m 2 min 0 min 0,6 UV-I 371 W/m 15,4 km/h (3 Bft)
21.10.2013 12:32 18,1 C 16,7 C 82 % 1013,5 hPa 0,0 l/m 2 min 0 min 0,6 UV-I 320 W/m 7,7 km/h (2 Bft)
21.10.2013 12:34 18,1 C 16,7 C 81 % 1013,5 hPa 0,0 l/m 2 min 0 min 0,6 UV-I 315 W/m 18,0 km/h (3 Bft)
21.10.2013 12:36 18,1 C 16,7 C 80 % 1013,5 hPa 0,0 l/m 2 min 0 min 0,6 UV-I 322 W/m 18,0 km/h (3 Bft)
21.10.2013 12:38 18,0 C 16,7 C 80 % 1013,5 hPa 0,0 l/m 2 min 0 min 0,6 UV-I 322 W/m 12,9 km/h (3 Bft)
21.10.2013 12:40 18,0 C 16,7 C 81 % 1013,6 hPa 0,0 l/m 2 min 0 min 0,6 UV-I 436 W/m 23,2 km/h (4 Bft)
21.10.2013 12:42 18,1 C 16,7 C 81 % 1013,6 hPa 0,0 l/m 2 min 0 min 0,7 UV-I 362 W/m 12,9 km/h (3 Bft)
21.10.2013 12:44 18,2 C 17,2 C 80 % 1013,6 hPa 0,0 l/m 2 min 0 min 0,7 UV-I 501 W/m 25,7 km/h (4 Bft)
21.10.2013 12:46 18,3 C 17,2 C 80 % 1013,6 hPa 0,0 l/m 2 min 0 min 0,7 UV-I 515 W/m 10,3 km/h (2 Bft)
21.10.2013 12:48 18,4 C 17,2 C 79 % 1013,6 hPa 0,0 l/m 2 min 0 min 0,7 UV-I 357 W/m 28,3 km/h (4 Bft)
21.10.2013 12:50 18,3 C 17,2 C 79 % 1013,6 hPa 0,0 l/m 2 min 0 min 0,7 UV-I 496 W/m 28,3 km/h (4 Bft)
21.10.2013 12:52 18,3 C 17,2 C 79 % 1013,6 hPa 0,0 l/m 2 min 0 min 0,6 UV-I 496 W/m 15,4 km/h (3 Bft)
21.10.2013 12:54 18,3 C 17,2 C 79 % 1013,5 hPa 0,0 l/m 0 min 0 min 0,6 UV-I 178 W/m 10,3 km/h (2 Bft)
21.10.2013 12:56 18,2 C 16,7 C 80 % 1013,5 hPa 0,0 l/m 0 min 0 min 0,6 UV-I 125 W/m 7,7 km/h (2 Bft)
21.10.2013 12:58 18,0 C 16,7 C 80 % 1013,6 hPa 0,0 l/m 0 min 0 min 0,6 UV-I 130 W/m 15,4 km/h (3 Bft)
21.10.2013 13:00 17,9 C 16,7 C 80 % 1013,6 hPa 0,0 l/m 0 min 0 min 0,6 UV-I 183 W/m 15,4 km/h (3 Bft)
21.10.2013 13:02 17,9 C 16,7 C 80 % 1013,6 hPa 0,0 l/m 0 min 0 min 0,6 UV-I 142 W/m 15,4 km/h (3 Bft)
21.10.2013 13:06 17,8 C 16,7 C 82 % 1013,5 hPa 0,0 l/m 0 min 0 min 0,5 UV-I 207 W/m 12,9 km/h (3 Bft)
21.10.2013 13:08 17,8 C 16,7 C 81 % 1013,6 hPa 0,0 l/m 0 min 0 min 0,6 UV-I 211 W/m 15,4 km/h (3 Bft)
21.10.2013 13:10 17,8 C 16,7 C 81 % 1013,5 hPa 0,0 l/m 0 min 0 min 0,5 UV-I 192 W/m 15,4 km/h (3 Bft)
21.10.2013 13:12 17,8 C 16,7 C 82 % 1013,5 hPa 0,0 l/m 0 min 0 min 0,0 UV-I 160 W/m 10,3 km/h (2 Bft)
21.10.2013 13:14 17,8 C 16,7 C 81 % 1013,5 hPa 0,0 l/m 0 min 0 min 0,0 UV-I 158 W/m 10,3 km/h (2 Bft)
21.10.2013 13:16 17,8 C 16,7 C 81 % 1013,5 hPa 0,0 l/m 0 min 0 min 0,5 UV-I 193 W/m 18,0 km/h (3 Bft)
21.10.2013 13:18 17,9 C 16,7 C 81 % 1013,6 hPa 0,0 l/m 0 min 0 min 0,5 UV-I 190 W/m 5,1 km/h (1 Bft)
21.10.2013 13:20 17,9 C 16,7 C 81 % 1013,5 hPa 0,0 l/m 0 min 0 min 0,5 UV-I 190 W/m 7,7 km/h (2 Bft)
21.10.2013 13:22 18,0 C 16,7 C 80 % 1013,5 hPa 0,0 l/m 0 min 0 min 0,5 UV-I 172 W/m 15,4 km/h (3 Bft)
21.10.2013 13:24 18,0 C 16,7 C 80 % 1013,5 hPa 0,0 l/m 0 min 0 min 0,0 UV-I 195 W/m 12,9 km/h (3 Bft)
21.10.2013 13:26 18,0 C 16,7 C 80 % 1013,6 hPa 0,0 l/m 0 min 0 min 0,0 UV-I 135 W/m 15,4 km/h (3 Bft)
21.10.2013 13:28 18,0 C 16,7 C 80 % 1013,5 hPa 0,0 l/m 0 min 0 min 0,0 UV-I 134 W/m 2,6 km/h (1 Bft)
21.10.2013 13:30 17,9 C 16,7 C 81 % 1013,5 hPa 0,0 l/m 0 min 0 min 0,0 UV-I 146 W/m 10,3 km/h (2 Bft)
21.10.2013 13:32 17,9 C 16,7 C 81 % 1013,6 hPa 0,0 l/m 0 min 0 min 0,0 UV-I 144 W/m 12,9 km/h (3 Bft)
21.10.2013 13:34 17,9 C 16,7 C 81 % 1013,5 hPa 0,0 l/m 0 min 0 min 0,0 UV-I 134 W/m 15,4 km/h (3 Bft)
21.10.2013 13:36 17,9 C 16,7 C 81 % 1013,6 hPa 0,0 l/m 0 min 0 min 0,5 UV-I 167 W/m 18,0 km/h (3 Bft)
21.10.2013 13:38 17,9 C 16,7 C 80 % 1013,5 hPa 0,0 l/m 0 min 0 min 0,6 UV-I 199 W/m 20,6 km/h (4 Bft)
21.10.2013 13:40 18,0 C 16,7 C 81 % 1013,5 hPa 0,0 l/m 0 min 0 min 0,5 UV-I 188 W/m 12,9 km/h (3 Bft)
21.10.2013 13:42 18,0 C 16,7 C 81 % 1013,5 hPa 0,0 l/m 0 min 0 min 0,5 UV-I 195 W/m 12,9 km/h (3 Bft)
21.10.2013 13:44 18,1 C 16,7 C 81 % 1013,5 hPa 0,0 l/m 0 min 0 min 0,6 UV-I 176 W/m 10,3 km/h (2 Bft)
21.10.2013 13:46 18,1 C 17,2 C 80 % 1013,5 hPa 0,0 l/m 0 min 0 min 0,5 UV-I 181 W/m 0,0 km/h (0 Bft)
21.10.2013 13:48 18,1 C 17,2 C 80 % 1013,5 hPa 0,0 l/m 0 min 0 min 0,5 UV-I 172 W/m 12,9 km/h (3 Bft)
21.10.2013 13:50 18,1 C 17,2 C 81 % 1013,5 hPa 0,0 l/m 0 min 0 min 0,0 UV-I 162 W/m 7,7 km/h (2 Bft)
21.10.2013 13:52 18,1 C 17,2 C 81 % 1013,6 hPa 0,0 l/m 0 min 0 min 0,0 UV-I 142 W/m 10,3 km/h (2 Bft)
21.10.2013 13:54 18,1 C 17,2 C 81 % 1013,6 hPa 0,0 l/m 0 min 0 min 0,0 UV-I 153 W/m 15,4 km/h (3 Bft)
21.10.2013 13:56 18,1 C 17,2 C 80 % 1013,6 hPa 0,0 l/m 0 min 0 min 0,0 UV-I 153 W/m 10,3 km/h (2 Bft)
21.10.2013 13:58 18,1 C 17,2 C 80 % 1013,5 hPa 0,0 l/m 0 min 0 min 0,0 UV-I 162 W/m 2,6 km/h (1 Bft)
21.10.2013 14:00 18,1 C 17,2 C 80 % 1013,5 hPa 0,0 l/m 0 min 0 min 0,0 UV-I 153 W/m 5,1 km/h (1 Bft)
21.10.2013 14:02 18,1 C 17,2 C 81 % 1013,5 hPa 0,0 l/m 0 min 0 min 0,0 UV-I 148 W/m 7,7 km/h (2 Bft)
21.10.2013 14:06 18,1 C 16,7 C 79 % 1013,5 hPa 0,0 l/m 0 min 0 min 0,0 UV-I 137 W/m 23,2 km/h (4 Bft)
21.10.2013 14:08 18,0 C 16,7 C 79 % 1013,5 hPa 0,0 l/m 0 min 0 min 0,0 UV-I 137 W/m 12,9 km/h (3 Bft)
21.10.2013 14:10 17,9 C 16,7 C 79 % 1013,5 hPa 0,0 l/m 0 min 0 min 0,0 UV-I 142 W/m 10,3 km/h (2 Bft)
21.10.2013 14:12 17,9 C 16,7 C 79 % 1013,5 hPa 0,0 l/m 0 min 0 min 0,0 UV-I 146 W/m 0,0 km/h (0 Bft)
21.10.2013 14:14 17,9 C 16,7 C 79 % 1013,5 hPa 0,0 l/m 0 min 0 min 0,0 UV-I 151 W/m 0,0 km/h (0 Bft)
21.10.2013 14:16 17,9 C 16,7 C 79 % 1013,5 hPa 0,0 l/m 0 min 0 min 0,0 UV-I 160 W/m 15,4 km/h (3 Bft)
21.10.2013 14:18 17,9 C 16,7 C 79 % 1013,5 hPa 0,0 l/m 0 min 0 min 0,0 UV-I 163 W/m 2,6 km/h (1 Bft)
21.10.2013 14:20 17,9 C 16,7 C 79 % 1013,4 hPa 0,0 l/m 0 min 0 min 0,0 UV-I 160 W/m 5,1 km/h (1 Bft)
21.10.2013 14:22 17,9 C 16,7 C 80 % 1013,4 hPa 0,0 l/m 0 min 0 min 0,0 UV-I 149 W/m 0,0 km/h (0 Bft)
21.10.2013 14:24 17,9 C 16,7 C 80 % 1013,4 hPa 0,0 l/m 0 min 0 min 0,0 UV-I 146 W/m 0,0 km/h (0 Bft)
21.10.2013 14:26 17,9 C 16,7 C 80 % 1013,4 hPa 0,0 l/m 0 min 0 min 0,0 UV-I 141 W/m 12,9 km/h (3 Bft)
21.10.2013 14:28 17,9 C 16,7 C 79 % 1013,4 hPa 0,0 l/m 0 min 0 min 0,0 UV-I 137 W/m 0,0 km/h (0 Bft)
21.10.2013 14:30 17,9 C 16,7 C 80 % 1013,4 hPa 0,0 l/m 0 min 0 min 0,0 UV-I 137 W/m 2,6 km/h (1 Bft)
21.10.2013 14:32 17,9 C 16,7 C 80 % 1013,4 hPa 0,0 l/m 0 min 0 min 0,0 UV-I 141 W/m 5,1 km/h (1 Bft)
21.10.2013 14:34 17,9 C 16,7 C 80 % 1013,4 hPa 0,0 l/m 0 min 0 min 0,0 UV-I 142 W/m 0,0 km/h (0 Bft)
21.10.2013 14:36 17,9 C 16,7 C 80 % 1013,4 hPa 0,0 l/m 0 min 0 min 0,0 UV-I 139 W/m 7,7 km/h (2 Bft)
21.10.2013 14:38 17,9 C 16,7 C 79 % 1013,4 hPa 0,0 l/m 0 min 0 min 0,0 UV-I 134 W/m 0,0 km/h (0 Bft)
21.10.2013 14:40 17,9 C 16,7 C 80 % 1013,4 hPa 0,0 l/m 0 min 0 min 0,0 UV-I 127 W/m 10,3 km/h (2 Bft)
21.10.2013 14:42 17,9 C 16,7 C 80 % 1013,3 hPa 0,0 l/m 0 min 0 min 0,0 UV-I 127 W/m 12,9 km/h (3 Bft)
21.10.2013 14:44 17,9 C 16,7 C 80 % 1013,4 hPa 0,0 l/m 0 min 0 min 0,0 UV-I 132 W/m 12,9 km/h (3 Bft)
21.10.2013 14:46 17,9 C 16,7 C 80 % 1013,5 hPa 0,0 l/m 0 min 0 min 0,0 UV-I 137 W/m 10,3 km/h (2 Bft)
21.10.2013 14:48 17,9 C 16,7 C 79 % 1013,5 hPa 0,0 l/m 0 min 0 min 0,0 UV-I 137 W/m 7,7 km/h (2 Bft)
21.10.2013 14:50 17,9 C 16,7 C 79 % 1013,4 hPa 0,0 l/m 0 min 0 min 0,0 UV-I 128 W/m 10,3 km/h (2 Bft)
21.10.2013 14:52 17,9 C 16,7 C 80 % 1013,5 hPa 0,0 l/m 0 min 0 min 0,0 UV-I 109 W/m 0,0 km/h (0 Bft)
21.10.2013 14:54 17,8 C 16,7 C 80 % 1013,4 hPa 0,0 l/m 0 min 0 min 0,0 UV-I 111 W/m 12,9 km/h (3 Bft)
21.10.2013 14:56 17,8 C 16,7 C 80 % 1013,4 hPa 0,0 l/m 0 min 0 min 0,0 UV-I 109 W/m 7,7 km/h (2 Bft)
21.10.2013 14:58 17,8 C 16,7 C 80 % 1013,3 hPa 0,0 l/m 0 min 0 min 0,0 UV-I 109 W/m 5,1 km/h (1 Bft)
21.10.2013 15:00 17,8 C 16,7 C 80 % 1013,3 hPa 0,0 l/m 0 min 0 min 0,0 UV-I 109 W/m 5,1 km/h (1 Bft)
21.10.2013 15:02 17,8 C 16,7 C 80 % 1013,3 hPa 0,0 l/m 0 min 0 min 0,0 UV-I 113 W/m 5,1 km/h (1 Bft)
21.10.2013 15:06 17,8 C 16,7 C 80 % 1013,4 hPa 0,0 l/m 0 min 0 min 0,0 UV-I 127 W/m 7,7 km/h (2 Bft)
21.10.2013 15:08 17,8 C 16,7 C 80 % 1013,4 hPa 0,0 l/m 0 min 0 min 0,0 UV-I 135 W/m 5,1 km/h (1 Bft)
21.10.2013 15:10 17,8 C 16,7 C 80 % 1013,3 hPa 0,0 l/m 0 min 0 min 0,0 UV-I 146 W/m 10,3 km/h (2 Bft)
21.10.2013 15:12 17,8 C 16,7 C 80 % 1013,3 hPa 0,0 l/m 0 min 0 min 0,0 UV-I 158 W/m 15,4 km/h (3 Bft)
21.10.2013 15:14 17,8 C 16,7 C 79 % 1013,2 hPa 0,0 l/m 0 min 0 min 0,0 UV-I 171 W/m 15,4 km/h (3 Bft)
21.10.2013 15:16 17,9 C 16,7 C 79 % 1013,2 hPa 0,0 l/m 0 min 0 min 0,0 UV-I 169 W/m 18,0 km/h (3 Bft)
21.10.2013 15:18 17,9 C 16,7 C 79 % 1013,2 hPa 0,0 l/m 0 min 0 min 0,0 UV-I 162 W/m 10,3 km/h (2 Bft)
21.10.2013 15:20 17,9 C 16,7 C 79 % 1013,2 hPa 0,0 l/m 0 min 0 min 0,0 UV-I 158 W/m 7,7 km/h (2 Bft)
21.10.2013 15:22 17,9 C 17,2 C 79 % 1013,2 hPa 0,0 l/m 0 min 0 min 0,0 UV-I 155 W/m 0,0 km/h (0 Bft)
21.10.2013 15:24 17,9 C 17,2 C 80 % 1013,2 hPa 0,0 l/m 0 min 0 min 0,0 UV-I 146 W/m 2,6 km/h (1 Bft)
21.10.2013 15:26 18,0 C 17,2 C 79 % 1013,1 hPa 0,0 l/m 0 min 0 min 0,0 UV-I 137 W/m 7,7 km/h (2 Bft)
21.10.2013 15:28 18,0 C 16,7 C 79 % 1013,1 hPa 0,0 l/m 0 min 0 min 0,0 UV-I 137 W/m 10,3 km/h (2 Bft)
21.10.2013 15:30 18,0 C 16,7 C 79 % 1013,0 hPa 0,0 l/m 0 min 0 min 0,0 UV-I 139 W/m 5,1 km/h (1 Bft)
21.10.2013 15:32 18,0 C 16,7 C 79 % 1013,0 hPa 0,0 l/m 0 min 0 min 0,0 UV-I 148 W/m 5,1 km/h (1 Bft)
21.10.2013 15:34 18,0 C 17,2 C 80 % 1013,0 hPa 0,0 l/m 0 min 0 min 0,0 UV-I 148 W/m 0,0 km/h (0 Bft)
21.10.2013 15:36 18,1 C 17,2 C 79 % 1013,0 hPa 0,0 l/m 0 min 0 min 0,0 UV-I 139 W/m 0,0 km/h (0 Bft)
21.10.2013 15:38 18,1 C 17,2 C 79 % 1013,0 hPa 0,0 l/m 0 min 0 min 0,0 UV-I 132 W/m 0,0 km/h (0 Bft)
21.10.2013 15:40 18,1 C 17,2 C 79 % 1013,0 hPa 0,0 l/m 0 min 0 min 0,0 UV-I 128 W/m 7,7 km/h (2 Bft)
21.10.2013 15:42 18,1 C 16,7 C 78 % 1013,1 hPa 0,0 l/m 0 min 0 min 0,0 UV-I 128 W/m 10,3 km/h (2 Bft)
21.10.2013 15:44 18,1 C 16,7 C 79 % 1013,0 hPa 0,0 l/m 0 min 0 min 0,0 UV-I 163 W/m 10,3 km/h (2 Bft)
21.10.2013 15:46 18,1 C 17,2 C 79 % 1012,9 hPa 0,0 l/m 2 min 0 min 0,0 UV-I 218 W/m 2,6 km/h (1 Bft)
21.10.2013 15:48 18,1 C 17,2 C 79 % 1012,8 hPa 0,0 l/m 0 min 0 min 0,0 UV-I 149 W/m 0,0 km/h (0 Bft)
21.10.2013 15:50 18,2 C 17,2 C 79 % 1012,8 hPa 0,0 l/m 0 min 0 min 0,0 UV-I 179 W/m 0,0 km/h (0 Bft)
21.10.2013 15:52 18,2 C 17,2 C 79 % 1012,9 hPa 0,0 l/m 2 min 0 min 0,0 UV-I 193 W/m 10,3 km/h (2 Bft)
21.10.2013 15:54 18,3 C 17,2 C 79 % 1013,0 hPa 0,0 l/m 0 min 0 min 0,0 UV-I 172 W/m 0,0 km/h (0 Bft)
21.10.2013 15:56 18,4 C 17,2 C 79 % 1013,0 hPa 0,0 l/m 0 min 0 min 0,0 UV-I 163 W/m 0,0 km/h (0 Bft)
21.10.2013 15:58 18,4 C 17,2 C 78 % 1012,8 hPa 0,0 l/m 0 min 0 min 0,0 UV-I 176 W/m 0,0 km/h (0 Bft)
21.10.2013 16:00 18,5 C 17,2 C 78 % 1012,7 hPa 0,0 l/m 2 min 0 min 0,0 UV-I 214 W/m 0,0 km/h (0 Bft)
21.10.2013 16:02 18,6 C 17,8 C 78 % 1012,7 hPa 0,0 l/m 0 min 0 min 0,0 UV-I 171 W/m 0,0 km/h (0 Bft)
21.10.2013 16:06 18,6 C 17,2 C 78 % 1012,7 hPa 0,0 l/m 0 min 0 min 0,0 UV-I 127 W/m 0,0 km/h (0 Bft)
21.10.2013 16:08 18,6 C 17,2 C 78 % 1012,7 hPa 0,0 l/m 0 min 0 min 0,0 UV-I 127 W/m 0,0 km/h (0 Bft)
21.10.2013 16:10 18,6 C 17,2 C 78 % 1012,8 hPa 0,0 l/m 0 min 0 min 0,0 UV-I 127 W/m 10,3 km/h (2 Bft)
21.10.2013 16:12 18,6 C 17,2 C 78 % 1012,7 hPa 0,0 l/m 0 min 0 min 0,0 UV-I 132 W/m 10,3 km/h (2 Bft)
21.10.2013 16:14 18,6 C 17,2 C 78 % 1012,7 hPa 0,0 l/m 0 min 0 min 0,0 UV-I 134 W/m 12,9 km/h (3 Bft)
21.10.2013 16:16 18,6 C 17,2 C 78 % 1012,7 hPa 0,0 l/m 0 min 0 min 0,0 UV-I 146 W/m 0,0 km/h (0 Bft)
21.10.2013 16:18 18,6 C 17,2 C 78 % 1012,7 hPa 0,0 l/m 0 min 0 min 0,0 UV-I 158 W/m 12,9 km/h (3 Bft)
21.10.2013 16:20 18,6 C 17,2 C 78 % 1012,7 hPa 0,0 l/m 0 min 0 min 0,0 UV-I 148 W/m 10,3 km/h (2 Bft)
21.10.2013 16:22 18,7 C 17,2 C 78 % 1012,7 hPa 0,0 l/m 0 min 0 min 0,0 UV-I 139 W/m 10,3 km/h (2 Bft)
21.10.2013 16:24 18,7 C 17,2 C 78 % 1012,6 hPa 0,0 l/m 0 min 0 min 0,0 UV-I 141 W/m 0,0 km/h (0 Bft)
21.10.2013 16:26 18,8 C 17,2 C 78 % 1012,6 hPa 0,0 l/m 0 min 0 min 0,0 UV-I 123 W/m 7,7 km/h (2 Bft)
21.10.2013 16:28 18,8 C 17,2 C 76 % 1012,6 hPa 0,0 l/m 0 min 0 min 0,0 UV-I 104 W/m 0,0 km/h (0 Bft)
21.10.2013 16:30 18,9 C 17,2 C 77 % 1012,7 hPa 0,0 l/m 0 min 0 min 0,0 UV-I 104 W/m 0,0 km/h (0 Bft)
21.10.2013 16:32 18,8 C 17,2 C 77 % 1012,6 hPa 0,0 l/m 0 min 0 min 0,0 UV-I 98 W/m 0,0 km/h (0 Bft)
21.10.2013 16:34 18,8 C 17,2 C 77 % 1012,6 hPa 0,0 l/m 0 min 0 min 0,0 UV-I 93 W/m 0,0 km/h (0 Bft)
21.10.2013 16:36 18,7 C 17,2 C 77 % 1012,6 hPa 0,0 l/m 0 min 0 min 0,0 UV-I 91 W/m 12,9 km/h (3 Bft)
21.10.2013 16:38 18,7 C 17,2 C 77 % 1012,6 hPa 0,0 l/m 0 min 0 min 0,0 UV-I 93 W/m 10,3 km/h (2 Bft)
21.10.2013 16:40 18,7 C 17,2 C 77 % 1012,6 hPa 0,0 l/m 0 min 0 min 0,0 UV-I 93 W/m 10,3 km/h (2 Bft)
21.10.2013 16:42 18,7 C 17,2 C 77 % 1012,6 hPa 0,0 l/m 0 min 0 min 0,0 UV-I 95 W/m 10,3 km/h (2 Bft)
21.10.2013 16:44 18,7 C 17,2 C 76 % 1012,6 hPa 0,0 l/m 0 min 0 min 0,0 UV-I 90 W/m 10,3 km/h (2 Bft)
21.10.2013 16:46 18,7 C 17,2 C 77 % 1012,6 hPa 0,0 l/m 0 min 0 min 0,0 UV-I 86 W/m 0,0 km/h (0 Bft)
21.10.2013 16:48 18,7 C 16,7 C 77 % 1012,6 hPa 0,0 l/m 0 min 0 min 0,0 UV-I 90 W/m 10,3 km/h (2 Bft)
21.10.2013 16:50 18,7 C 17,2 C 77 % 1012,5 hPa 0,0 l/m 0 min 0 min 0,0 UV-I 86 W/m 10,3 km/h (2 Bft)
21.10.2013 16:52 18,6 C 16,7 C 78 % 1012,5 hPa 0,0 l/m 0 min 0 min 0,0 UV-I 86 W/m 0,0 km/h (0 Bft)
21.10.2013 16:54 18,6 C 16,7 C 77 % 1012,5 hPa 0,0 l/m 0 min 0 min 0,0 UV-I 97 W/m 0,0 km/h (0 Bft)
21.10.2013 16:56 18,6 C 16,7 C 77 % 1012,6 hPa 0,0 l/m 0 min 0 min 0,0 UV-I 98 W/m 5,1 km/h (1 Bft)
21.10.2013 16:58 18,6 C 16,7 C 78 % 1012,6 hPa 0,0 l/m 0 min 0 min 0,0 UV-I 100 W/m 0,0 km/h (0 Bft)
21.10.2013 17:00 18,5 C 16,7 C 78 % 1012,5 hPa 0,0 l/m 0 min 0 min 0,0 UV-I 86 W/m 0,0 km/h (0 Bft)
21.10.2013 17:02 18,5 C 16,7 C 78 % 1012,5 hPa 0,0 l/m 0 min 0 min 0,0 UV-I 79 W/m 0,0 km/h (0 Bft)
21.10.2013 17:06 18,5 C 16,7 C 77 % 1012,4 hPa 0,0 l/m 0 min 0 min 0,0 UV-I 70 W/m 0,0 km/h (0 Bft)
21.10.2013 17:09 18,5 C 16,7 C 78 % 1012,3 hPa 0,0 l/m 0 min 0 min 0,0 UV-I 67 W/m 0,0 km/h (0 Bft)
21.10.2013 17:10 18,5 C 16,7 C 78 % 1012,3 hPa 0,0 l/m 0 min 0 min 0,0 UV-I 65 W/m 0,0 km/h (0 Bft)
21.10.2013 17:12 18,5 C 16,7 C 78 % 1012,3 hPa 0,0 l/m 0 min 0 min 0,0 UV-I 60 W/m 0,0 km/h (0 Bft)
21.10.2013 17:14 18,5 C 16,7 C 78 % 1012,3 hPa 0,0 l/m 0 min 0 min 0,0 UV-I 58 W/m 0,0 km/h (0 Bft)
21.10.2013 17:16 18,4 C 16,7 C 78 % 1012,3 hPa 0,0 l/m 0 min 0 min 0,0 UV-I 54 W/m 0,0 km/h (0 Bft)
21.10.2013 17:18 18,4 C 16,7 C 79 % 1012,4 hPa 0,0 l/m 0 min 0 min 0,0 UV-I 49 W/m 0,0 km/h (0 Bft)
21.10.2013 17:20 18,3 C 16,7 C 79 % 1012,3 hPa 0,0 l/m 0 min 0 min 0,0 UV-I 49 W/m 5,1 km/h (1 Bft)
21.10.2013 17:22 18,3 C 16,1 C 79 % 1012,2 hPa 0,0 l/m 0 min 0 min 0,0 UV-I 47 W/m 0,0 km/h (0 Bft)
21.10.2013 17:24 18,3 C 16,1 C 79 % 1012,2 hPa 0,0 l/m 0 min 0 min 0,0 UV-I 44 W/m 0,0 km/h (0 Bft)
21.10.2013 17:26 18,3 C 16,1 C 80 % 1012,3 hPa 0,0 l/m 0 min 0 min 0,0 UV-I 40 W/m 0,0 km/h (0 Bft)
21.10.2013 17:28 18,3 C 16,1 C 79 % 1012,2 hPa 0,0 l/m 0 min 0 min 0,0 UV-I 37 W/m 0,0 km/h (0 Bft)
21.10.2013 17:30 18,2 C 16,1 C 80 % 1012,3 hPa 0,0 l/m 0 min 0 min 0,0 UV-I 35 W/m 0,0 km/h (0 Bft)
21.10.2013 17:32 18,2 C 16,1 C 80 % 1012,3 hPa 0,0 l/m 0 min 0 min 0,0 UV-I 33 W/m 0,0 km/h (0 Bft)
21.10.2013 17:34 18,2 C 16,1 C 80 % 1012,3 hPa 0,0 l/m 0 min 0 min 0,0 UV-I 32 W/m 0,0 km/h (0 Bft)
21.10.2013 17:36 18,1 C 16,1 C 80 % 1012,3 hPa 0,0 l/m 0 min 0 min 0,0 UV-I 32 W/m 0,0 km/h (0 Bft)
21.10.2013 17:38 18,1 C 16,1 C 81 % 1012,2 hPa 0,0 l/m 0 min 0 min 0,0 UV-I 30 W/m 0,0 km/h (0 Bft)
21.10.2013 17:40 18,1 C 16,1 C 81 % 1012,3 hPa 0,0 l/m 0 min 0 min 0,0 UV-I 28 W/m 0,0 km/h (0 Bft)
21.10.2013 17:42 18,1 C 16,1 C 81 % 1012,3 hPa 0,0 l/m 0 min 0 min 0,0 UV-I 28 W/m 0,0 km/h (0 Bft)
21.10.2013 17:44 18,0 C 16,1 C 81 % 1012,3 hPa 0,0 l/m 0 min 0 min 0,0 UV-I 28 W/m 0,0 km/h (0 Bft)
21.10.2013 17:46 17,9 C 16,1 C 82 % 1012,4 hPa 0,0 l/m 0 min 0 min 0,0 UV-I 28 W/m 0,0 km/h (0 Bft)
21.10.2013 17:48 17,9 C 16,1 C 82 % 1012,4 hPa 0,0 l/m 0 min 0 min 0,0 UV-I 26 W/m 0,0 km/h (0 Bft)
21.10.2013 17:50 17,8 C 16,1 C 82 % 1012,3 hPa 0,0 l/m 0 min 0 min 0,0 UV-I 25 W/m 0,0 km/h (0 Bft)
21.10.2013 17:52 17,8 C 15,6 C 83 % 1012,3 hPa 0,0 l/m 0 min 0 min 0,0 UV-I 23 W/m 0,0 km/h (0 Bft)
21.10.2013 17:54 17,7 C 15,6 C 83 % 1012,3 hPa 0,0 l/m 0 min 0 min 0,0 UV-I 21 W/m 0,0 km/h (0 Bft)
21.10.2013 17:56 17,7 C 15,6 C 83 % 1012,3 hPa 0,0 l/m 0 min 0 min 0,0 UV-I 21 W/m 0,0 km/h (0 Bft)
21.10.2013 17:58 17,7 C 15,6 C 83 % 1012,3 hPa 0,0 l/m 0 min 0 min 0,0 UV-I 19 W/m 0,0 km/h (0 Bft)
21.10.2013 18:00 17,6 C 15,6 C 83 % 1012,3 hPa 0,0 l/m 0 min 0 min 0,0 UV-I 18 W/m 0,0 km/h (0 Bft)
21.10.2013 18:02 17,6 C 15,6 C 83 % 1012,2 hPa 0,0 l/m 0 min 0 min 0,0 UV-I 18 W/m 0,0 km/h (0 Bft)
21.10.2013 18:06 17,5 C 15,6 C 84 % 1012,3 hPa 0,0 l/m 0 min 0 min 0,0 UV-I 16 W/m 0,0 km/h (0 Bft)
21.10.2013 18:08 17,5 C 15,6 C 84 % 1012,3 hPa 0,0 l/m 0 min 0 min 0,0 UV-I 16 W/m 0,0 km/h (0 Bft)
21.10.2013 18:10 17,4 C 15,6 C 84 % 1012,2 hPa 0,0 l/m 0 min 0 min 0,0 UV-I 14 W/m 0,0 km/h (0 Bft)
21.10.2013 18:12 17,4 C 15,6 C 84 % 1012,2 hPa 0,0 l/m 0 min 0 min 0,0 UV-I 12 W/m 0,0 km/h (0 Bft)
21.10.2013 18:14 17,4 C 15,0 C 84 % 1012,2 hPa 0,0 l/m 0 min 0 min 0,0 UV-I 11 W/m 0,0 km/h (0 Bft)
21.10.2013 18:16 17,4 C 15,0 C 84 % 1012,3 hPa 0,0 l/m 0 min 0 min 0,0 UV-I 11 W/m 0,0 km/h (0 Bft)
21.10.2013 18:18 17,3 C 15,0 C 84 % 1012,2 hPa 0,0 l/m 0 min 0 min 0,0 UV-I 9 W/m 0,0 km/h (0 Bft)
21.10.2013 18:20 17,3 C 15,0 C 85 % 1012,2 hPa 0,0 l/m 0 min 0 min 0,0 UV-I 9 W/m 0,0 km/h (0 Bft)
21.10.2013 18:22 17,3 C 15,0 C 85 % 1012,2 hPa 0,0 l/m 0 min 0 min 0,0 UV-I 7 W/m 0,0 km/h (0 Bft)
21.10.2013 18:24 17,2 C 15,0 C 85 % 1012,2 hPa 0,0 l/m 0 min 0 min 0,0 UV-I 7 W/m 0,0 km/h (0 Bft)
21.10.2013 18:26 17,2 C 15,6 C 85 % 1012,1 hPa 0,0 l/m 0 min 0 min 0,0 UV-I 5 W/m 0,0 km/h (0 Bft)
21.10.2013 18:28 17,2 C 15,0 C 85 % 1012,1 hPa 0,0 l/m 0 min 0 min 0,0 UV-I 5 W/m 0,0 km/h (0 Bft)
21.10.2013 18:30 17,2 C 15,0 C 85 % 1012,1 hPa 0,0 l/m 0 min 0 min 0,0 UV-I 5 W/m 0,0 km/h (0 Bft)
21.10.2013 18:32 17,1 C 15,0 C 85 % 1012,1 hPa 0,0 l/m 0 min 0 min 0,0 UV-I 0 W/m 5,1 km/h (1 Bft)
21.10.2013 18:34 17,1 C 15,0 C 85 % 1012,1 hPa 0,0 l/m 0 min 0 min 0,0 UV-I 0 W/m 10,3 km/h (2 Bft)
21.10.2013 18:36 17,1 C 15,0 C 85 % 1012,2 hPa 0,0 l/m 0 min 0 min 0,0 UV-I 0 W/m 10,3 km/h (2 Bft)
21.10.2013 18:38 17,1 C 15,0 C 85 % 1012,2 hPa 0,0 l/m 0 min 0 min 0,0 UV-I 0 W/m 10,3 km/h (2 Bft)
21.10.2013 18:40 17,1 C 15,0 C 85 % 1012,2 hPa 0,0 l/m 0 min 0 min 0,0 UV-I 0 W/m 5,1 km/h (1 Bft)
21.10.2013 18:42 17,1 C 15,0 C 84 % 1012,1 hPa 0,0 l/m 0 min 0 min 0,0 UV-I 0 W/m 10,3 km/h (2 Bft)
21.10.2013 18:44 17,1 C 15,0 C 84 % 1012,1 hPa 0,0 l/m 0 min 0 min 0,0 UV-I 0 W/m 7,7 km/h (2 Bft)
21.10.2013 18:46 17,1 C 15,0 C 84 % 1012,1 hPa 0,0 l/m 0 min 0 min 0,0 UV-I 0 W/m 5,1 km/h (1 Bft)
21.10.2013 18:48 17,1 C 15,0 C 84 % 1012,0 hPa 0,0 l/m 0 min 0 min 0,0 UV-I 0 W/m 5,1 km/h (1 Bft)
21.10.2013 18:50 17,1 C 15,0 C 84 % 1012,0 hPa 0,0 l/m 0 min 0 min 0,0 UV-I 0 W/m 2,6 km/h (1 Bft)
21.10.2013 18:52 17,0 C 15,0 C 84 % 1012,0 hPa 0,0 l/m 0 min 0 min 0,0 UV-I 0 W/m 0,0 km/h (0 Bft)
21.10.2013 18:54 16,9 C 15,0 C 84 % 1012,0 hPa 0,0 l/m 0 min 0 min 0,0 UV-I 0 W/m 2,6 km/h (1 Bft)
21.10.2013 18:56 16,9 C 15,0 C 85 % 1012,0 hPa 0,0 l/m 0 min 0 min 0,0 UV-I 0 W/m 7,7 km/h (2 Bft)
21.10.2013 18:58 16,8 C 15,0 C 84 % 1012,1 hPa 0,0 l/m 0 min 0 min 0,0 UV-I 0 W/m 10,3 km/h (2 Bft)
21.10.2013 19:00 16,8 C 15,0 C 85 % 1012,1 hPa 0,0 l/m 0 min 0 min 0,0 UV-I 0 W/m 2,6 km/h (1 Bft)
21.10.2013 19:02 16,8 C 15,0 C 85 % 1012,1 hPa 0,0 l/m 0 min 0 min 0,0 UV-I 0 W/m 7,7 km/h (2 Bft)
21.10.2013 19:05 16,8 C 15,0 C 85 % 1012,1 hPa 0,0 l/m 0 min 0 min 0,0 UV-I 0 W/m 7,7 km/h (2 Bft)
21.10.2013 19:08 16,7 C 15,0 C 85 % 1012,1 hPa 0,0 l/m 0 min 0 min 0,0 UV-I 0 W/m 7,7 km/h (2 Bft)
21.10.2013 19:10 16,7 C 14,4 C 85 % 1012,1 hPa 0,0 l/m 0 min 0 min 0,0 UV-I 0 W/m 2,6 km/h (1 Bft)
21.10.2013 19:12 16,7 C 14,4 C 85 % 1012,1 hPa 0,0 l/m 0 min 0 min 0,0 UV-I 0 W/m 10,3 km/h (2 Bft)
21.10.2013 19:14 16,6 C 14,4 C 85 % 1012,1 hPa 0,0 l/m 0 min 0 min 0,0 UV-I 0 W/m 7,7 km/h (2 Bft)
21.10.2013 19:16 16,6 C 14,4 C 85 % 1012,1 hPa 0,0 l/m 0 min 0 min 0,0 UV-I 0 W/m 7,7 km/h (2 Bft)
21.10.2013 19:18 16,6 C 14,4 C 85 % 1012,1 hPa 0,0 l/m 0 min 0 min 0,0 UV-I 0 W/m 0,0 km/h (0 Bft)
21.10.2013 19:20 16,6 C 14,4 C 85 % 1012,1 hPa 0,0 l/m 0 min 0 min 0,0 UV-I 0 W/m 0,0 km/h (0 Bft)
21.10.2013 19:22 16,5 C 14,4 C 85 % 1012,1 hPa 0,0 l/m 0 min 0 min 0,0 UV-I 0 W/m 2,6 km/h (1 Bft)
21.10.2013 19:24 16,4 C 14,4 C 85 % 1012,1 hPa 0,0 l/m 0 min 0 min 0,0 UV-I 0 W/m 10,3 km/h (2 Bft)
21.10.2013 19:26 16,4 C 14,4 C 85 % 1012,1 hPa 0,0 l/m 0 min 0 min 0,0 UV-I 0 W/m 10,3 km/h (2 Bft)
21.10.2013 19:28 16,3 C 14,4 C 86 % 1012,2 hPa 0,0 l/m 0 min 0 min 0,0 UV-I 0 W/m 5,1 km/h (1 Bft)
21.10.2013 19:30 16,3 C 14,4 C 86 % 1012,2 hPa 0,0 l/m 0 min 0 min 0,0 UV-I 0 W/m 10,3 km/h (2 Bft)
21.10.2013 19:32 16,3 C 14,4 C 86 % 1012,2 hPa 0,0 l/m 0 min 0 min 0,0 UV-I 0 W/m 7,7 km/h (2 Bft)
21.10.2013 19:34 16,2 C 14,4 C 86 % 1012,2 hPa 0,0 l/m 0 min 0 min 0,0 UV-I 0 W/m 7,7 km/h (2 Bft)
21.10.2013 19:36 16,2 C 13,9 C 86 % 1012,2 hPa 0,0 l/m 0 min 0 min 0,0 UV-I 0 W/m 0,0 km/h (0 Bft)
21.10.2013 19:38 16,1 C 13,9 C 86 % 1012,3 hPa 0,0 l/m 0 min 0 min 0,0 UV-I 0 W/m 2,6 km/h (1 Bft)
21.10.2013 19:40 16,1 C 13,9 C 86 % 1012,2 hPa 0,0 l/m 0 min 0 min 0,0 UV-I 0 W/m 10,3 km/h (2 Bft)
21.10.2013 19:42 16,0 C 13,9 C 87 % 1012,2 hPa 0,0 l/m 0 min 0 min 0,0 UV-I 0 W/m 10,3 km/h (2 Bft)
21.10.2013 19:44 15,9 C 13,9 C 87 % 1012,2 hPa 0,0 l/m 0 min 0 min 0,0 UV-I 0 W/m 10,3 km/h (2 Bft)
21.10.2013 19:46 15,9 C 13,9 C 87 % 1012,2 hPa 0,0 l/m 0 min 0 min 0,0 UV-I 0 W/m 5,1 km/h (1 Bft)
21.10.2013 19:48 15,9 C 13,9 C 87 % 1012,2 hPa 0,0 l/m 0 min 0 min 0,0 UV-I 0 W/m 5,1 km/h (1 Bft)
21.10.2013 19:50 15,8 C 13,9 C 87 % 1012,2 hPa 0,0 l/m 0 min 0 min 0,0 UV-I 0 W/m 10,3 km/h (2 Bft)
21.10.2013 19:52 15,8 C 13,9 C 88 % 1012,2 hPa 0,0 l/m 0 min 0 min 0,0 UV-I 0 W/m 7,7 km/h (2 Bft)
21.10.2013 19:54 15,7 C 13,9 C 88 % 1012,2 hPa 0,0 l/m 0 min 0 min 0,0 UV-I 0 W/m 5,1 km/h (1 Bft)
21.10.2013 19:56 15,7 C 13,9 C 88 % 1012,2 hPa 0,0 l/m 0 min 0 min 0,0 UV-I 0 W/m 10,3 km/h (2 Bft)
21.10.2013 19:58 15,7 C 13,9 C 88 % 1012,2 hPa 0,0 l/m 0 min 0 min 0,0 UV-I 0 W/m 15,4 km/h (3 Bft)
21.10.2013 20:00 15,7 C 13,9 C 88 % 1012,2 hPa 0,0 l/m 0 min 0 min 0,0 UV-I 0 W/m 12,9 km/h (3 Bft)
21.10.2013 20:02 15,7 C 13,9 C 88 % 1012,2 hPa 0,0 l/m 0 min 0 min 0,0 UV-I 0 W/m 10,3 km/h (2 Bft)
21.10.2013 20:06 15,6 C 13,9 C 89 % 1012,2 hPa 0,0 l/m 0 min 0 min 0,0 UV-I 0 W/m 7,7 km/h (2 Bft)
21.10.2013 20:08 15,6 C 13,9 C 88 % 1012,1 hPa 0,0 l/m 0 min 0 min 0,0 UV-I 0 W/m 12,9 km/h (3 Bft)
21.10.2013 20:10 15,6 C 13,9 C 89 % 1012,2 hPa 0,0 l/m 0 min 0 min 0,0 UV-I 0 W/m 12,9 km/h (3 Bft)
21.10.2013 20:12 15,6 C 13,9 C 89 % 1012,1 hPa 0,0 l/m 0 min 0 min 0,0 UV-I 0 W/m 18,0 km/h (3 Bft)
21.10.2013 20:14 15,6 C 13,9 C 89 % 1012,1 hPa 0,0 l/m 0 min 0 min 0,0 UV-I 0 W/m 12,9 km/h (3 Bft)
21.10.2013 20:16 15,6 C 13,9 C 89 % 1012,1 hPa 0,0 l/m 0 min 0 min 0,0 UV-I 0 W/m 7,7 km/h (2 Bft)
21.10.2013 20:18 15,5 C 13,9 C 89 % 1012,1 hPa 0,0 l/m 0 min 0 min 0,0 UV-I 0 W/m 2,6 km/h (1 Bft)
21.10.2013 20:20 15,5 C 13,9 C 89 % 1012,1 hPa 0,0 l/m 0 min 0 min 0,0 UV-I 0 W/m 7,7 km/h (2 Bft)
21.10.2013 20:22 15,4 C 13,9 C 89 % 1012,1 hPa 0,0 l/m 0 min 0 min 0,0 UV-I 0 W/m 2,6 km/h (1 Bft)
21.10.2013 20:24 15,4 C 13,3 C 89 % 1012,1 hPa 0,0 l/m 0 min 0 min 0,0 UV-I 0 W/m 12,9 km/h (3 Bft)
21.10.2013 20:26 15,4 C 13,3 C 89 % 1012,1 hPa 0,0 l/m 0 min 0 min 0,0 UV-I 0 W/m 15,4 km/h (3 Bft)
21.10.2013 20:28 15,4 C 13,3 C 89 % 1012,1 hPa 0,0 l/m 0 min 0 min 0,0 UV-I 0 W/m 10,3 km/h (2 Bft)
21.10.2013 20:30 15,4 C 13,3 C 89 % 1012,1 hPa 0,0 l/m 0 min 0 min 0,0 UV-I 0 W/m 10,3 km/h (2 Bft)
21.10.2013 20:32 15,3 C 13,3 C 89 % 1012,1 hPa 0,0 l/m 0 min 0 min 0,0 UV-I 0 W/m 2,6 km/h (1 Bft)
21.10.2013 20:34 15,3 C 13,3 C 89 % 1012,0 hPa 0,0 l/m 0 min 0 min 0,0 UV-I 0 W/m 7,7 km/h (2 Bft)
21.10.2013 20:36 15,3 C 13,3 C 89 % 1012,0 hPa 0,0 l/m 0 min 0 min 0,0 UV-I 0 W/m 2,6 km/h (1 Bft)
21.10.2013 20:38 15,3 C 13,3 C 89 % 1012,0 hPa 0,0 l/m 0 min 0 min 0,0 UV-I 0 W/m 12,9 km/h (3 Bft)
21.10.2013 20:40 15,3 C 13,3 C 89 % 1012,0 hPa 0,0 l/m 0 min 0 min 0,0 UV-I 0 W/m 10,3 km/h (2 Bft)
21.10.2013 20:42 15,3 C 13,3 C 89 % 1012,0 hPa 0,0 l/m 0 min 0 min 0,0 UV-I 0 W/m 7,7 km/h (2 Bft)
21.10.2013 20:44 15,3 C 13,3 C 89 % 1012,0 hPa 0,0 l/m 0 min 0 min 0,0 UV-I 0 W/m 2,6 km/h (1 Bft)
21.10.2013 20:46 15,3 C 13,3 C 89 % 1012,1 hPa 0,0 l/m 0 min 0 min 0,0 UV-I 0 W/m 12,9 km/h (3 Bft)
21.10.2013 20:48 15,3 C 13,3 C 89 % 1012,0 hPa 0,0 l/m 0 min 0 min 0,0 UV-I 0 W/m 5,1 km/h (1 Bft)
21.10.2013 20:50 15,3 C 13,3 C 89 % 1012,0 hPa 0,0 l/m 0 min 2 min 0,0 UV-I 0 W/m 10,3 km/h (2 Bft)
21.10.2013 20:52 15,3 C 13,3 C 89 % 1012,0 hPa 0,0 l/m 0 min 2 min 0,0 UV-I 0 W/m 10,3 km/h (2 Bft)
21.10.2013 20:54 15,3 C 13,3 C 89 % 1012,1 hPa 0,0 l/m 0 min 0 min 0,0 UV-I 0 W/m 5,1 km/h (1 Bft)
21.10.2013 20:56 15,2 C 13,3 C 89 % 1012,0 hPa 0,0 l/m 0 min 0 min 0,0 UV-I 0 W/m 12,9 km/h (3 Bft)
21.10.2013 20:58 15,2 C 13,3 C 89 % 1012,0 hPa 0,0 l/m 0 min 0 min 0,0 UV-I 0 W/m 2,6 km/h (1 Bft)
21.10.2013 21:00 15,2 C 13,3 C 89 % 1012,1 hPa 0,0 l/m 0 min 0 min 0,0 UV-I 0 W/m 7,7 km/h (2 Bft)
21.10.2013 21:02 15,2 C 13,3 C 89 % 1012,0 hPa 0,0 l/m 0 min 0 min 0,0 UV-I 0 W/m 12,9 km/h (3 Bft)
21.10.2013 21:06 15,2 C 13,3 C 89 % 1012,0 hPa 0,0 l/m 0 min 0 min 0,0 UV-I 0 W/m 7,7 km/h (2 Bft)
21.10.2013 21:08 15,2 C 13,3 C 89 % 1012,0 hPa 0,0 l/m 0 min 0 min 0,0 UV-I 0 W/m 2,6 km/h (1 Bft)
21.10.2013 21:10 15,1 C 13,3 C 89 % 1011,9 hPa 0,0 l/m 0 min 0 min 0,0 UV-I 0 W/m 7,7 km/h (2 Bft)
21.10.2013 21:12 15,1 C 13,3 C 89 % 1011,9 hPa 0,0 l/m 0 min 0 min 0,0 UV-I 0 W/m 10,3 km/h (2 Bft)
21.10.2013 21:14 15,1 C 13,3 C 89 % 1011,9 hPa 0,0 l/m 0 min 0 min 0,0 UV-I 0 W/m 5,1 km/h (1 Bft)
21.10.2013 21:16 15,1 C 13,3 C 90 % 1011,9 hPa 0,0 l/m 0 min 0 min 0,0 UV-I 0 W/m 2,6 km/h (1 Bft)
21.10.2013 21:18 15,1 C 13,3 C 90 % 1011,9 hPa 0,0 l/m 0 min 0 min 0,0 UV-I 0 W/m 10,3 km/h (2 Bft)
21.10.2013 21:20 15,0 C 13,3 C 90 % 1011,9 hPa 0,0 l/m 0 min 0 min 0,0 UV-I 0 W/m 7,7 km/h (2 Bft)
21.10.2013 21:22 15,0 C 13,3 C 90 % 1011,9 hPa 0,0 l/m 0 min 0 min 0,0 UV-I 0 W/m 15,4 km/h (3 Bft)
21.10.2013 21:24 15,0 C 13,3 C 90 % 1011,9 hPa 0,0 l/m 0 min 0 min 0,0 UV-I 0 W/m 10,3 km/h (2 Bft)
21.10.2013 21:26 15,0 C 13,3 C 90 % 1011,9 hPa 0,0 l/m 0 min 0 min 0,0 UV-I 0 W/m 7,7 km/h (2 Bft)
21.10.2013 21:28 14,9 C 13,3 C 90 % 1011,9 hPa 0,0 l/m 0 min 0 min 0,0 UV-I 0 W/m 10,3 km/h (2 Bft)
21.10.2013 21:30 14,9 C 13,3 C 90 % 1011,9 hPa 0,0 l/m 0 min 0 min 0,0 UV-I 0 W/m 12,9 km/h (3 Bft)
21.10.2013 21:32 14,9 C 13,3 C 90 % 1012,0 hPa 0,0 l/m 0 min 0 min 0,0 UV-I 0 W/m 15,4 km/h (3 Bft)
21.10.2013 21:34 14,9 C 13,3 C 90 % 1012,0 hPa 0,0 l/m 0 min 0 min 0,0 UV-I 0 W/m 10,3 km/h (2 Bft)
21.10.2013 21:36 14,9 C 13,3 C 90 % 1012,0 hPa 0,0 l/m 0 min 0 min 0,0 UV-I 0 W/m 15,4 km/h (3 Bft)
21.10.2013 21:38 14,9 C 13,3 C 90 % 1012,0 hPa 0,0 l/m 0 min 0 min 0,0 UV-I 0 W/m 12,9 km/h (3 Bft)
21.10.2013 21:40 14,9 C 13,3 C 90 % 1012,0 hPa 0,0 l/m 0 min 0 min 0,0 UV-I 0 W/m 15,4 km/h (3 Bft)
21.10.2013 21:42 14,9 C 13,3 C 90 % 1012,0 hPa 0,0 l/m 0 min 0 min 0,0 UV-I 0 W/m 7,7 km/h (2 Bft)
21.10.2013 21:44 14,9 C 13,3 C 90 % 1012,0 hPa 0,0 l/m 0 min 0 min 0,0 UV-I 0 W/m 23,2 km/h (4 Bft)
21.10.2013 21:46 14,9 C 13,3 C 90 % 1011,9 hPa 0,0 l/m 0 min 0 min 0,0 UV-I 0 W/m 12,9 km/h (3 Bft)
21.10.2013 21:48 14,9 C 13,3 C 89 % 1011,9 hPa 0,0 l/m 0 min 0 min 0,0 UV-I 0 W/m 5,1 km/h (1 Bft)
21.10.2013 21:50 14,9 C 13,3 C 89 % 1011,9 hPa 0,0 l/m 0 min 0 min 0,0 UV-I 0 W/m 12,9 km/h (3 Bft)
21.10.2013 21:52 14,9 C 13,3 C 89 % 1011,9 hPa 0,0 l/m 0 min 0 min 0,0 UV-I 0 W/m 10,3 km/h (2 Bft)
21.10.2013 21:54 14,9 C 13,3 C 89 % 1011,9 hPa 0,0 l/m 0 min 0 min 0,0 UV-I 0 W/m 12,9 km/h (3 Bft)
21.10.2013 21:56 14,9 C 13,3 C 89 % 1012,0 hPa 0,0 l/m 0 min 0 min 0,0 UV-I 0 W/m 10,3 km/h (2 Bft)
21.10.2013 21:58 14,9 C 13,3 C 89 % 1012,0 hPa 0,0 l/m 0 min 0 min 0,0 UV-I 0 W/m 15,4 km/h (3 Bft)
21.10.2013 22:00 14,9 C 13,3 C 89 % 1012,0 hPa 0,0 l/m 0 min 0 min 0,0 UV-I 0 W/m 10,3 km/h (2 Bft)
21.10.2013 22:02 14,9 C 13,3 C 89 % 1011,9 hPa 0,0 l/m 0 min 0 min 0,0 UV-I 0 W/m 15,4 km/h (3 Bft)
21.10.2013 22:06 14,9 C 13,3 C 89 % 1012,0 hPa 0,0 l/m 0 min 0 min 0,0 UV-I 0 W/m 12,9 km/h (3 Bft)
21.10.2013 22:08 14,9 C 13,3 C 89 % 1011,9 hPa 0,0 l/m 0 min 0 min 0,0 UV-I 0 W/m 15,4 km/h (3 Bft)
21.10.2013 22:10 14,9 C 13,3 C 89 % 1011,9 hPa 0,0 l/m 0 min 0 min 0,0 UV-I 0 W/m 12,9 km/h (3 Bft)
21.10.2013 22:12 14,9 C 13,3 C 89 % 1011,9 hPa 0,0 l/m 0 min 0 min 0,0 UV-I 0 W/m 18,0 km/h (3 Bft)
21.10.2013 22:14 14,9 C 13,3 C 89 % 1011,9 hPa 0,0 l/m 0 min 0 min 0,0 UV-I 0 W/m 15,4 km/h (3 Bft)
21.10.2013 22:16 14,9 C 13,3 C 89 % 1011,9 hPa 0,0 l/m 0 min 0 min 0,0 UV-I 0 W/m 12,9 km/h (3 Bft)
21.10.2013 22:18 14,9 C 13,3 C 89 % 1011,9 hPa 0,0 l/m 0 min 0 min 0,0 UV-I 0 W/m 15,4 km/h (3 Bft)
21.10.2013 22:20 14,8 C 13,3 C 89 % 1011,8 hPa 0,0 l/m 0 min 0 min 0,0 UV-I 0 W/m 12,9 km/h (3 Bft)
21.10.2013 22:22 14,8 C 13,3 C 89 % 1011,9 hPa 0,0 l/m 0 min 0 min 0,0 UV-I 0 W/m 15,4 km/h (3 Bft)
21.10.2013 22:24 14,8 C 13,3 C 89 % 1011,9 hPa 0,0 l/m 0 min 0 min 0,0 UV-I 0 W/m 10,3 km/h (2 Bft)
21.10.2013 22:26 14,8 C 12,8 C 89 % 1011,9 hPa 0,0 l/m 0 min 0 min 0,0 UV-I 0 W/m 10,3 km/h (2 Bft)
21.10.2013 22:28 14,8 C 12,8 C 89 % 1011,9 hPa 0,0 l/m 0 min 0 min 0,0 UV-I 0 W/m 12,9 km/h (3 Bft)
21.10.2013 22:30 14,7 C 12,8 C 89 % 1011,9 hPa 0,0 l/m 0 min 0 min 0,0 UV-I 0 W/m 12,9 km/h (3 Bft)
21.10.2013 22:32 14,7 C 12,8 C 90 % 1011,9 hPa 0,0 l/m 0 min 0 min 0,0 UV-I 0 W/m 10,3 km/h (2 Bft)
21.10.2013 22:34 14,7 C 12,8 C 90 % 1011,9 hPa 0,0 l/m 0 min 0 min 0,0 UV-I 0 W/m 5,1 km/h (1 Bft)
21.10.2013 22:36 14,7 C 12,8 C 90 % 1011,9 hPa 0,0 l/m 0 min 0 min 0,0 UV-I 0 W/m 7,7 km/h (2 Bft)
21.10.2013 22:38 14,6 C 12,8 C 90 % 1011,9 hPa 0,0 l/m 0 min 0 min 0,0 UV-I 0 W/m 10,3 km/h (2 Bft)
21.10.2013 22:40 14,6 C 12,8 C 90 % 1011,9 hPa 0,0 l/m 0 min 0 min 0,0 UV-I 0 W/m 10,3 km/h (2 Bft)
21.10.2013 22:42 14,6 C 12,8 C 90 % 1011,9 hPa 0,0 l/m 0 min 0 min 0,0 UV-I 0 W/m 12,9 km/h (3 Bft)
21.10.2013 22:44 14,6 C 12,8 C 90 % 1011,9 hPa 0,0 l/m 0 min 0 min 0,0 UV-I 0 W/m 10,3 km/h (2 Bft)
21.10.2013 22:46 14,5 C 12,8 C 90 % 1011,8 hPa 0,0 l/m 0 min 0 min 0,0 UV-I 0 W/m 12,9 km/h (3 Bft)
21.10.2013 22:48 14,5 C 12,8 C 90 % 1011,8 hPa 0,0 l/m 0 min 0 min 0,0 UV-I 0 W/m 0,0 km/h (0 Bft)
21.10.2013 22:50 14,5 C 12,8 C 90 % 1011,8 hPa 0,0 l/m 0 min 0 min 0,0 UV-I 0 W/m 10,3 km/h (2 Bft)
21.10.2013 22:52 14,4 C 12,8 C 90 % 1011,9 hPa 0,0 l/m 0 min 0 min 0,0 UV-I 0 W/m 7,7 km/h (2 Bft)
21.10.2013 22:54 14,4 C 12,8 C 90 % 1011,8 hPa 0,0 l/m 0 min 0 min 0,0 UV-I 0 W/m 10,3 km/h (2 Bft)
21.10.2013 22:56 14,4 C 12,8 C 90 % 1011,8 hPa 0,0 l/m 0 min 0 min 0,0 UV-I 0 W/m 12,9 km/h (3 Bft)
21.10.2013 22:58 14,4 C 12,8 C 90 % 1011,8 hPa 0,0 l/m 0 min 0 min 0,0 UV-I 0 W/m 7,7 km/h (2 Bft)
21.10.2013 23:00 14,3 C 12,8 C 91 % 1011,8 hPa 0,0 l/m 0 min 0 min 0,0 UV-I 0 W/m 7,7 km/h (2 Bft)
21.10.2013 23:02 14,3 C 12,8 C 91 % 1011,8 hPa 0,0 l/m 0 min 0 min 0,0 UV-I 0 W/m 10,3 km/h (2 Bft)
21.10.2013 23:06 14,2 C 12,2 C 91 % 1011,7 hPa 0,0 l/m 0 min 0 min 0,0 UV-I 0 W/m 7,7 km/h (2 Bft)
21.10.2013 23:08 14,2 C 12,2 C 91 % 1011,6 hPa 0,0 l/m 0 min 0 min 0,0 UV-I 0 W/m 2,6 km/h (1 Bft)
21.10.2013 23:10 14,2 C 12,2 C 91 % 1011,8 hPa 0,0 l/m 0 min 0 min 0,0 UV-I 0 W/m 7,7 km/h (2 Bft)
21.10.2013 23:12 14,2 C 12,2 C 91 % 1011,8 hPa 0,0 l/m 0 min 0 min 0,0 UV-I 0 W/m 5,1 km/h (1 Bft)
21.10.2013 23:14 14,2 C 12,2 C 91 % 1011,8 hPa 0,0 l/m 0 min 0 min 0,0 UV-I 0 W/m 0,0 km/h (0 Bft)
21.10.2013 23:16 14,2 C 12,2 C 91 % 1011,7 hPa 0,0 l/m 0 min 0 min 0,0 UV-I 0 W/m 7,7 km/h (2 Bft)
21.10.2013 23:18 14,2 C 12,2 C 91 % 1011,7 hPa 0,0 l/m 0 min 0 min 0,0 UV-I 0 W/m 0,0 km/h (0 Bft)
21.10.2013 23:20 14,1 C 12,2 C 91 % 1011,6 hPa 0,0 l/m 0 min 0 min 0,0 UV-I 0 W/m 7,7 km/h (2 Bft)
21.10.2013 23:22 14,1 C 12,2 C 91 % 1011,7 hPa 0,0 l/m 0 min 0 min 0,0 UV-I 0 W/m 10,3 km/h (2 Bft)
21.10.2013 23:24 14,0 C 12,2 C 92 % 1011,6 hPa 0,0 l/m 0 min 0 min 0,0 UV-I 0 W/m 10,3 km/h (2 Bft)
21.10.2013 23:26 14,0 C 12,2 C 92 % 1011,6 hPa 0,0 l/m 0 min 0 min 0,0 UV-I 0 W/m 10,3 km/h (2 Bft)
21.10.2013 23:28 14,0 C 12,2 C 92 % 1011,6 hPa 0,0 l/m 0 min 0 min 0,0 UV-I 0 W/m 10,3 km/h (2 Bft)
21.10.2013 23:30 14,0 C 12,2 C 92 % 1011,6 hPa 0,0 l/m 0 min 0 min 0,0 UV-I 0 W/m 10,3 km/h (2 Bft)
21.10.2013 23:32 13,9 C 12,2 C 92 % 1011,6 hPa 0,0 l/m 0 min 0 min 0,0 UV-I 0 W/m 5,1 km/h (1 Bft)
21.10.2013 23:34 13,9 C 12,2 C 92 % 1011,6 hPa 0,0 l/m 0 min 0 min 0,0 UV-I 0 W/m 7,7 km/h (2 Bft)
21.10.2013 23:36 13,9 C 12,2 C 92 % 1011,6 hPa 0,0 l/m 0 min 0 min 0,0 UV-I 0 W/m 12,9 km/h (3 Bft)
21.10.2013 23:38 13,9 C 12,2 C 92 % 1011,6 hPa 0,0 l/m 0 min 0 min 0,0 UV-I 0 W/m 5,1 km/h (1 Bft)
21.10.2013 23:40 13,9 C 12,2 C 92 % 1011,6 hPa 0,0 l/m 0 min 0 min 0,0 UV-I 0 W/m 2,6 km/h (1 Bft)
21.10.2013 23:42 13,9 C 12,2 C 92 % 1011,6 hPa 0,0 l/m 0 min 0 min 0,0 UV-I 0 W/m 5,1 km/h (1 Bft)
21.10.2013 23:44 13,9 C 12,2 C 92 % 1011,5 hPa 0,0 l/m 0 min 0 min 0,0 UV-I 0 W/m 10,3 km/h (2 Bft)
21.10.2013 23:46 13,8 C 12,2 C 92 % 1011,5 hPa 0,0 l/m 0 min 0 min 0,0 UV-I 0 W/m 7,7 km/h (2 Bft)
21.10.2013 23:48 13,8 C 12,2 C 93 % 1011,5 hPa 0,0 l/m 0 min 0 min 0,0 UV-I 0 W/m 0,0 km/h (0 Bft)
21.10.2013 23:50 13,8 C 12,2 C 93 % 1011,6 hPa 0,0 l/m 0 min 0 min 0,0 UV-I 0 W/m 7,7 km/h (2 Bft)
21.10.2013 23:52 13,8 C 12,2 C 93 % 1011,6 hPa 0,0 l/m 0 min 0 min 0,0 UV-I 0 W/m 15,4 km/h (3 Bft)
21.10.2013 23:54 13,8 C 12,2 C 93 % 1011,6 hPa 0,0 l/m 0 min 0 min 0,0 UV-I 0 W/m 10,3 km/h (2 Bft)
21.10.2013 23:56 13,8 C 12,2 C 93 % 1011,6 hPa 0,0 l/m 0 min 0 min 0,0 UV-I 0 W/m 0,0 km/h (0 Bft)
21.10.2013 23:58 13,8 C 12,2 C 93 % 1011,6 hPa 0,0 l/m 0 min 0 min 0,0 UV-I 0 W/m 10,3 km/h (2 Bft)
_ Min-Zeit 06:44 06:40 16:28 23:44 - - - - - 00:08
Minimum _ 11,9 C 10,0 C 76 % 1011,5 hPa - - - - - 0,0 km/h (0 Bft)
_ Max-Zeit 16:28 16:02 10:02 12:08 00:00 11:40 07:36 12:00 12:46 12:48
Maximum _ 18,9 C 17,8 C 98 % 1013,6 hPa 0,0 l/m 2 min 2 min 0,9 UV-I 515 W/m 28,3 km/h
S-SO (4 Bft)
Durchschnitt _ 15,1 C 13,6 C 88 % 1012,7 hPa #0,0 l/m #52 min. #20 min. 0,6 UV-I 125 W/m 6,3 km/h (2 Bft)
© 2013 W. Hausmann